Darstellungsparameter: Aktuell verwendete Einstellungen:
Skalierung der Graphiken ... ?
xyx+y,   Skalierungsfaktor:      Skalierung: Modus: x, Faktor: 1
Darstellungszeitraum ... ?
Vom - - bis: - -   Zeitraum: 12.06.2020 - 16.06.2020
Min/Max/Avg-Anzeige ... ?
Zeige MMA aktuell
Zeige MMA Monat
Zeige MMA alles
Zeige --A aktuell
Zeige --A Monat
Zeige --A alles
Keine MMA-Anzeige
MMA:
Keine MMA-Graphiken
MMA-Basis: 12.06.2020 - 16.06.2020
Quicknavigation für Darstellung... ?
Tage:      1T, 2T, 3T, 5T -1T -2T -3T -5T +1T +2T +3T +5T
Wochen: 1W, 2W, 3W -1W -2W -3W +1W +2W +3W
Monate: 1M, 3M, 6M -1M -3M -6M +1M +3M +6M
Jahre:    1J, 3J, 5J, 10J -1J -3J -5J -10J +1J +3J +5J +10J
Nutze für die Darstellung ... ?
Originaldaten oder Mittelwerte auf ...
Stundenbasis Tagesbasis Wochenbasis
Monatsbasis Jahresbasis      Datenbasis: Original-Daten
Darstellen als:
Statistik (Auto) Statistik J:M      Darstellung:
Zur Graphik,    zurück zur Übersicht aller Sensoren.
 
Tabellarische Datenbersicht: ?
 
Sensor: Nr:Datum:Temp:Abs-Feuchte:Windchill:Wind:
Aussen-T/F 1 12-06-2020 00:00:00 12.8 C 10.3 g/m*3 12.8 C 0 km/h
2 12-06-2020 00:05:00 12.8 C 10.42 g/m*3 12.8 C 0 km/h
3 12-06-2020 00:10:00 12.7 C 10.24 g/m*3 12.7 C 0 km/h
4 12-06-2020 00:15:00 12.6 C 10.29 g/m*3 12.6 C 0 km/h
5 12-06-2020 00:20:00 12.5 C 10.22 g/m*3 12.5 C 0 km/h
6 12-06-2020 00:25:00 12.4 C 10.16 g/m*3 12.4 C 0 km/h
7 12-06-2020 00:30:00 12.4 C 10.16 g/m*3 12.4 C 0 km/h
8 12-06-2020 00:35:00 12.3 C 10.1 g/m*3 12.3 C 0 km/h
9 12-06-2020 00:40:00 12.3 C 10.21 g/m*3 12.3 C 0 km/h
10 12-06-2020 00:45:00 12.3 C 10.21 g/m*3 12.3 C 0 km/h
11 12-06-2020 00:50:00 12.2 C 10.04 g/m*3 12.2 C 0 km/h
12 12-06-2020 00:55:00 12.1 C 9.97 g/m*3 12.1 C 0 km/h
13 12-06-2020 01:00:00 12 C 10.02 g/m*3 12 C 0 km/h
14 12-06-2020 01:05:00 11.9 C 9.96 g/m*3 11.9 C 0 km/h
15 12-06-2020 01:10:00 11.8 C 9.89 g/m*3 11.8 C 0 km/h
16 12-06-2020 01:15:00 11.8 C 9.89 g/m*3 11.8 C 0 km/h
17 12-06-2020 01:20:00 11.8 C 9.89 g/m*3 11.8 C 0 km/h
18 12-06-2020 01:25:00 11.7 C 9.83 g/m*3 11.7 C 0 km/h
19 12-06-2020 01:30:00 11.7 C 9.83 g/m*3 11.7 C 0 km/h
20 12-06-2020 01:35:00 11.7 C 9.83 g/m*3 11.7 C 0 km/h
21 12-06-2020 01:40:00 11.7 C 9.83 g/m*3 11.7 C 0 km/h
22 12-06-2020 01:45:00 11.6 C 9.77 g/m*3 11.6 C 0 km/h
23 12-06-2020 01:50:00 11.6 C 9.77 g/m*3 11.6 C 0 km/h
24 12-06-2020 01:55:00 11.5 C 9.71 g/m*3 11.5 C 0 km/h
25 12-06-2020 02:00:00 11.4 C 9.75 g/m*3 11.4 C 0 km/h
Sensor: Nr:Datum:Temp:Abs-Feuchte:Windchill:Wind:
Aussen-T/F 26 12-06-2020 02:05:00 11.4 C 9.75 g/m*3 11.4 C 0 km/h
27 12-06-2020 02:10:00 11.3 C 9.59 g/m*3 11.3 C 0 km/h
28 12-06-2020 02:15:00 11.3 C 9.69 g/m*3 11.3 C 0 km/h
29 12-06-2020 02:20:00 11.3 C 9.69 g/m*3 11.3 C 0 km/h
30 12-06-2020 02:25:00 11.3 C 9.69 g/m*3 11.3 C 0 km/h
31 12-06-2020 02:30:00 11.2 C 9.63 g/m*3 11.2 C 0 km/h
32 12-06-2020 02:35:00 11.2 C 9.63 g/m*3 11.2 C 0 km/h
33 12-06-2020 02:40:00 11.1 C 9.57 g/m*3 11.1 C 0 km/h
34 12-06-2020 02:45:00 11 C 9.51 g/m*3 11 C 0 km/h
35 12-06-2020 02:50:00 11 C 9.51 g/m*3 11 C 0 km/h
36 12-06-2020 02:55:00 10.9 C 9.45 g/m*3 10.9 C 0 km/h
37 12-06-2020 03:00:00 10.8 C 9.39 g/m*3 10.8 C 0 km/h
38 12-06-2020 03:05:00 10.8 C 9.39 g/m*3 10.8 C 0 km/h
39 12-06-2020 03:10:00 10.7 C 9.33 g/m*3 10.7 C 0 km/h
40 12-06-2020 03:15:00 10.7 C 9.33 g/m*3 10.7 C 0 km/h
41 12-06-2020 03:20:00 10.7 C 9.33 g/m*3 10.7 C 0 km/h
42 12-06-2020 03:25:00 10.6 C 9.27 g/m*3 10.6 C 0 km/h
43 12-06-2020 03:30:00 10.6 C 9.27 g/m*3 10.6 C 0 km/h
44 12-06-2020 03:35:00 10.6 C 9.27 g/m*3 10.6 C 0 km/h
45 12-06-2020 03:40:00 10.6 C 9.27 g/m*3 10.6 C 0 km/h
46 12-06-2020 03:45:00 10.5 C 9.21 g/m*3 10.5 C 0 km/h
47 12-06-2020 03:50:00 10.4 C 9.16 g/m*3 10.4 C 0 km/h
48 12-06-2020 03:55:00 10.4 C 9.16 g/m*3 10.4 C 0 km/h
49 12-06-2020 04:00:00 10.4 C 9.16 g/m*3 10.4 C 0 km/h
50 12-06-2020 04:05:00 10.3 C 9.1 g/m*3 10.3 C 0 km/h
Sensor: Nr:Datum:Temp:Abs-Feuchte:Windchill:Wind:
Aussen-T/F 51 12-06-2020 04:10:00 10.3 C 9.1 g/m*3 10.3 C 0 km/h
52 12-06-2020 04:15:00 10.3 C 9.19 g/m*3 10.3 C 0 km/h
53 12-06-2020 04:20:00 10.3 C 9.19 g/m*3 10.3 C 0 km/h
54 12-06-2020 04:25:00 10.4 C 9.25 g/m*3 10.4 C 0 km/h
55 12-06-2020 04:30:00 10.4 C 9.25 g/m*3 10.4 C 0 km/h
56 12-06-2020 04:35:00 10.4 C 9.25 g/m*3 10.4 C 0 km/h
57 12-06-2020 04:40:00 10.3 C 9.19 g/m*3 10.3 C 0 km/h
58 12-06-2020 04:45:00 10.3 C 9.19 g/m*3 10.3 C 0 km/h
59 12-06-2020 04:50:00 10.3 C 9.19 g/m*3 10.3 C 0 km/h
60 12-06-2020 04:55:00 10.4 C 9.25 g/m*3 10.4 C 0 km/h
61 12-06-2020 05:00:00 10.4 C 9.25 g/m*3 10.4 C 0 km/h
62 12-06-2020 05:05:00 10.5 C 9.31 g/m*3 10.5 C 0 km/h
63 12-06-2020 05:10:00 10.6 C 9.37 g/m*3 10.6 C 0 km/h
64 12-06-2020 05:15:00 10.7 C 9.43 g/m*3 10.7 C 0 km/h
65 12-06-2020 05:20:00 10.7 C 9.43 g/m*3 10.7 C 0 km/h
66 12-06-2020 05:25:00 10.8 C 9.49 g/m*3 10.8 C 0 km/h
67 12-06-2020 05:30:00 10.8 C 9.49 g/m*3 10.8 C 0 km/h
68 12-06-2020 05:35:00 10.8 C 9.49 g/m*3 10.8 C 0 km/h
69 12-06-2020 05:40:00 10.9 C 9.55 g/m*3 10.9 C 0 km/h
70 12-06-2020 05:45:00 11 C 9.61 g/m*3 11 C 0 km/h
71 12-06-2020 05:50:00 11.2 C 9.83 g/m*3 11.2 C 0 km/h
72 12-06-2020 05:55:00 11.3 C 9.89 g/m*3 11.3 C 0 km/h
73 12-06-2020 06:00:00 11.4 C 9.96 g/m*3 11.4 C 0 km/h
74 12-06-2020 06:05:00 11.6 C 10.08 g/m*3 11.6 C 0 km/h
75 12-06-2020 06:10:00 11.6 C 10.08 g/m*3 11.6 C 0 km/h
Sensor: Nr:Datum:Temp:Abs-Feuchte:Windchill:Wind:
Aussen-T/F 76 12-06-2020 06:15:00 11.6 C 10.08 g/m*3 11.6 C 0 km/h
77 12-06-2020 06:20:00 11.6 C 10.08 g/m*3 11.6 C 1.6 km/h
78 12-06-2020 06:25:00 11.7 C 10.15 g/m*3 11.7 C 1.6 km/h
79 12-06-2020 06:30:00 11.8 C 10.21 g/m*3 11.8 C 0 km/h
80 12-06-2020 06:35:00 11.8 C 10.21 g/m*3 11.8 C 4.8 km/h
81 12-06-2020 06:40:00 11.9 C 10.27 g/m*3 11.9 C 4.8 km/h
82 12-06-2020 06:45:00 11.9 C 10.27 g/m*3 11.9 C 0 km/h
83 12-06-2020 06:50:00 12 C 10.34 g/m*3 12 C 1.6 km/h
84 12-06-2020 06:55:00 12 C 10.34 g/m*3 12 C 0 km/h
85 12-06-2020 07:00:00 12.1 C 10.4 g/m*3 12.1 C 0 km/h
86 12-06-2020 07:05:00 12.2 C 10.47 g/m*3 12.2 C 0 km/h
87 12-06-2020 07:10:00 12.2 C 10.47 g/m*3 12.2 C 0 km/h
88 12-06-2020 07:15:00 12.3 C 10.53 g/m*3 12.3 C 1.6 km/h
89 12-06-2020 07:20:00 12.3 C 10.53 g/m*3 12.3 C 0 km/h
90 12-06-2020 07:25:00 12.5 C 10.66 g/m*3 12.5 C 0 km/h
91 12-06-2020 07:30:00 12.6 C 10.73 g/m*3 12.6 C 0 km/h
92 12-06-2020 07:35:00 12.7 C 10.8 g/m*3 12.7 C 0 km/h
93 12-06-2020 07:40:00 12.7 C 10.8 g/m*3 12.7 C 0 km/h
94 12-06-2020 07:45:00 12.8 C 10.87 g/m*3 12.8 C 0 km/h
95 12-06-2020 07:50:00 12.8 C 10.87 g/m*3 12.8 C 0 km/h
96 12-06-2020 07:55:00 13 C 11 g/m*3 13 C 0 km/h
97 12-06-2020 08:00:00 13.2 C 11.14 g/m*3 13.2 C 0 km/h
98 12-06-2020 08:05:00 13.2 C 11.14 g/m*3 13.2 C 0 km/h
99 12-06-2020 08:10:00 13.3 C 11.21 g/m*3 13.3 C 0 km/h
100 12-06-2020 08:15:00 13.4 C 11.28 g/m*3 13.4 C 1.6 km/h
Sensor: Nr:Datum:Temp:Abs-Feuchte:Windchill:Wind:
Aussen-T/F 101 12-06-2020 08:20:00 13.6 C 11.42 g/m*3 13.6 C 1.6 km/h
102 12-06-2020 08:25:00 13.7 C 11.49 g/m*3 13.7 C 3.2 km/h
103 12-06-2020 08:30:00 13.8 C 11.56 g/m*3 13.8 C 1.6 km/h
104 12-06-2020 08:35:00 14 C 11.7 g/m*3 14 C 3.2 km/h
105 12-06-2020 08:40:00 14.1 C 11.77 g/m*3 14.1 C 1.6 km/h
106 12-06-2020 08:45:00 14.3 C 11.92 g/m*3 14.3 C 1.6 km/h
107 12-06-2020 08:50:00 14.5 C 12.06 g/m*3 14.5 C 3.2 km/h
108 12-06-2020 08:55:00 14.7 C 12.09 g/m*3 14.7 C 4.8 km/h
109 12-06-2020 09:00:00 14.8 C 12.16 g/m*3 14.8 C 4.8 km/h
110 12-06-2020 09:05:00 15.1 C 12.39 g/m*3 15.1 C 8.1 km/h
111 12-06-2020 09:10:00 15.3 C 12.41 g/m*3 15.3 C 8.1 km/h
112 12-06-2020 09:15:00 15.6 C 12.5 g/m*3 15.6 C 6.4 km/h
113 12-06-2020 09:20:00 15.8 C 12.52 g/m*3 15.8 C 8.1 km/h
114 12-06-2020 09:25:00 16 C 12.53 g/m*3 16 C 6.4 km/h
115 12-06-2020 09:30:00 16.2 C 12.41 g/m*3 16.2 C 11.3 km/h
116 12-06-2020 09:35:00 16.4 C 12.42 g/m*3 16.4 C 9.7 km/h
117 12-06-2020 09:40:00 16.7 C 12.65 g/m*3 16.7 C 8.1 km/h
118 12-06-2020 09:45:00 16.8 C 12.58 g/m*3 16.8 C 3.2 km/h
119 12-06-2020 09:50:00 16.9 C 12.51 g/m*3 16.9 C 6.4 km/h
120 12-06-2020 09:55:00 17.2 C 12.74 g/m*3 17.2 C 9.7 km/h
121 12-06-2020 10:00:00 17.3 C 12.67 g/m*3 17.3 C 9.7 km/h
122 12-06-2020 10:05:00 17.3 C 12.67 g/m*3 17.3 C 8.1 km/h
123 12-06-2020 10:10:00 17.4 C 12.6 g/m*3 17.4 C 9.7 km/h
124 12-06-2020 10:15:00 17.7 C 12.82 g/m*3 17.7 C 17.7 km/h
125 12-06-2020 10:20:00 17.8 C 12.75 g/m*3 17.8 C 16.1 km/h
Sensor: Nr:Datum:Temp:Abs-Feuchte:Windchill:Wind:
Aussen-T/F 126 12-06-2020 10:25:00 17.9 C 12.83 g/m*3 17.9 C 12.9 km/h
127 12-06-2020 10:30:00 18.2 C 12.9 g/m*3 18.2 C 14.5 km/h
128 12-06-2020 10:35:00 18.3 C 12.82 g/m*3 18.3 C 8.1 km/h
129 12-06-2020 10:40:00 18.6 C 13.05 g/m*3 18.6 C 11.3 km/h
130 12-06-2020 10:45:00 18.8 C 13.05 g/m*3 18.8 C 9.7 km/h
131 12-06-2020 10:50:00 19.1 C 13.11 g/m*3 19.1 C 6.4 km/h
132 12-06-2020 10:55:00 19.3 C 13.27 g/m*3 19.3 C 11.3 km/h
133 12-06-2020 11:00:00 19.4 C 13.18 g/m*3 19.4 C 9.7 km/h
134 12-06-2020 11:05:00 19.6 C 13.34 g/m*3 19.6 C 6.4 km/h
135 12-06-2020 11:10:00 19.8 C 13.32 g/m*3 19.8 C 9.7 km/h
136 12-06-2020 11:15:00 19.9 C 13.57 g/m*3 19.9 C 4.8 km/h
137 12-06-2020 11:20:00 20.1 C 13.39 g/m*3 20.1 C 12.9 km/h
138 12-06-2020 11:25:00 20.3 C 13.54 g/m*3 20.3 C 12.9 km/h
139 12-06-2020 11:30:00 20.6 C 13.42 g/m*3 20.6 C 9.7 km/h
140 12-06-2020 11:35:00 20.7 C 13.5 g/m*3 20.7 C 11.3 km/h
141 12-06-2020 11:40:00 20.9 C 13.66 g/m*3 20.9 C 9.7 km/h
142 12-06-2020 11:45:00 21.1 C 13.63 g/m*3 21.1 C 4.8 km/h
143 12-06-2020 11:50:00 21.2 C 13.71 g/m*3 21.2 C 8.1 km/h
144 12-06-2020 11:55:00 21.4 C 13.87 g/m*3 21.4 C 0 km/h
145 12-06-2020 12:00:00 21.6 C 13.66 g/m*3 21.6 C 9.7 km/h
146 12-06-2020 12:05:00 21.7 C 13.73 g/m*3 21.7 C 14.5 km/h
147 12-06-2020 12:10:00 21.8 C 13.81 g/m*3 21.8 C 9.7 km/h
148 12-06-2020 12:15:00 21.8 C 13.81 g/m*3 21.8 C 9.7 km/h
149 12-06-2020 12:20:00 21.9 C 13.89 g/m*3 21.9 C 8.1 km/h
150 12-06-2020 12:25:00 22.2 C 13.74 g/m*3 22.2 C 9.7 km/h
Sensor: Nr:Datum:Temp:Abs-Feuchte:Windchill:Wind:
Aussen-T/F 151 12-06-2020 12:30:00 22.4 C 14.1 g/m*3 22.4 C 9.7 km/h
152 12-06-2020 12:35:00 22.6 C 14.06 g/m*3 22.6 C 4.8 km/h
153 12-06-2020 12:40:00 22.8 C 14.02 g/m*3 22.8 C 6.4 km/h
154 12-06-2020 12:45:00 22.9 C 13.9 g/m*3 22.9 C 14.5 km/h
155 12-06-2020 12:50:00 23.1 C 14.06 g/m*3 23.1 C 16.1 km/h
156 12-06-2020 12:55:00 23.3 C 14.22 g/m*3 23.3 C 8.1 km/h
157 12-06-2020 13:00:00 23.5 C 14.38 g/m*3 23.5 C 9.7 km/h
158 12-06-2020 13:05:00 23.7 C 14.33 g/m*3 23.7 C 9.7 km/h
159 12-06-2020 13:10:00 23.9 C 14.28 g/m*3 23.9 C 6.4 km/h
160 12-06-2020 13:15:00 24 C 13.49 g/m*3 24 C 12.9 km/h
161 12-06-2020 13:20:00 24.2 C 13.64 g/m*3 24.2 C 11.3 km/h
162 12-06-2020 13:25:00 24.3 C 12.83 g/m*3 24.3 C 8.1 km/h
163 12-06-2020 13:30:00 24.6 C 12.6 g/m*3 24.6 C 11.3 km/h
164 12-06-2020 13:35:00 24.8 C 12.75 g/m*3 24.8 C 11.3 km/h
165 12-06-2020 13:40:00 24.9 C 12.36 g/m*3 24.9 C 11.3 km/h
166 12-06-2020 13:45:00 25.2 C 12.11 g/m*3 25.2 C 19.3 km/h
167 12-06-2020 13:50:00 25.3 C 12.17 g/m*3 25.3 C 19.3 km/h
168 12-06-2020 13:55:00 25.4 C 12.48 g/m*3 25.4 C 12.9 km/h
169 12-06-2020 14:00:00 25.4 C 12.24 g/m*3 25.4 C 12.9 km/h
170 12-06-2020 14:05:00 25.7 C 12.21 g/m*3 25.7 C 16.1 km/h
171 12-06-2020 14:10:00 25.8 C 12.04 g/m*3 25.8 C 12.9 km/h
172 12-06-2020 14:15:00 25.9 C 11.86 g/m*3 25.9 C 8.1 km/h
173 12-06-2020 14:20:00 26 C 12.17 g/m*3 26 C 16.1 km/h
174 12-06-2020 14:25:00 26.1 C 12.24 g/m*3 26.1 C 8.1 km/h
175 12-06-2020 14:30:00 26.2 C 12.31 g/m*3 26.2 C 8.1 km/h
Sensor: Nr:Datum:Temp:Abs-Feuchte:Windchill:Wind:
Aussen-T/F 176 12-06-2020 14:35:00 26.3 C 12.87 g/m*3 26.3 C 8.1 km/h
177 12-06-2020 14:40:00 26.4 C 12.45 g/m*3 26.4 C 8.1 km/h
178 12-06-2020 14:45:00 26.7 C 12.15 g/m*3 26.7 C 14.5 km/h
179 12-06-2020 14:50:00 26.8 C 11.96 g/m*3 26.8 C 6.4 km/h
180 12-06-2020 14:55:00 26.9 C 12.03 g/m*3 26.9 C 11.3 km/h
181 12-06-2020 15:00:00 27.1 C 12.16 g/m*3 27.1 C 17.7 km/h
182 12-06-2020 15:05:00 27.3 C 12.04 g/m*3 27.3 C 11.3 km/h
183 12-06-2020 15:10:00 27.5 C 11.64 g/m*3 27.5 C 16.1 km/h
184 12-06-2020 15:15:00 27.4 C 11.84 g/m*3 27.4 C 17.7 km/h
185 12-06-2020 15:20:00 27.4 C 11.58 g/m*3 27.4 C 12.9 km/h
186 12-06-2020 15:25:00 27.5 C 12.17 g/m*3 27.5 C 14.5 km/h
187 12-06-2020 15:30:00 27.7 C 11.77 g/m*3 27.7 C 11.3 km/h
188 12-06-2020 15:35:00 27.8 C 11.83 g/m*3 27.8 C 12.9 km/h
189 12-06-2020 15:40:00 28.1 C 12.03 g/m*3 28.1 C 11.3 km/h
190 12-06-2020 15:45:00 28.5 C 11.74 g/m*3 28.5 C 9.7 km/h
191 12-06-2020 15:50:00 28.7 C 11.59 g/m*3 28.7 C 12.9 km/h
192 12-06-2020 15:55:00 28.9 C 11.71 g/m*3 28.9 C 8.1 km/h
193 12-06-2020 16:00:00 29.2 C 11.61 g/m*3 29.2 C 12.9 km/h
194 12-06-2020 16:05:00 29.1 C 11.55 g/m*3 29.1 C 14.5 km/h
195 12-06-2020 16:10:00 29.3 C 11.09 g/m*3 29.3 C 4.8 km/h
196 12-06-2020 16:15:00 29.7 C 11.34 g/m*3 29.7 C 14.5 km/h
197 12-06-2020 16:20:00 29.8 C 12.9 g/m*3 29.8 C 9.7 km/h
198 12-06-2020 16:25:00 30.1 C 11.59 g/m*3 30.1 C 8.1 km/h
199 12-06-2020 16:30:00 29.9 C 11.46 g/m*3 29.9 C 11.3 km/h
200 12-06-2020 16:35:00 29.9 C 12.06 g/m*3 29.9 C 9.7 km/h
Sensor: Nr:Datum:Temp:Abs-Feuchte:Windchill:Wind:
Aussen-T/F 201 12-06-2020 16:40:00 30.2 C 11.65 g/m*3 30.2 C 11.3 km/h
202 12-06-2020 16:45:00 30.1 C 11.59 g/m*3 30.1 C 12.9 km/h
203 12-06-2020 16:50:00 29.6 C 11.28 g/m*3 29.6 C 12.9 km/h
204 12-06-2020 16:55:00 29.4 C 11.45 g/m*3 29.4 C 16.1 km/h
205 12-06-2020 17:00:00 29.4 C 11.45 g/m*3 29.4 C 12.9 km/h
206 12-06-2020 17:05:00 29.4 C 11.15 g/m*3 29.4 C 17.7 km/h
207 12-06-2020 17:10:00 29.3 C 10.8 g/m*3 29.3 C 14.5 km/h
208 12-06-2020 17:15:00 29.2 C 11.61 g/m*3 29.2 C 9.7 km/h
209 12-06-2020 17:20:00 29.4 C 11.45 g/m*3 29.4 C 9.7 km/h
210 12-06-2020 17:25:00 29.3 C 11.68 g/m*3 29.3 C 6.4 km/h
211 12-06-2020 17:30:00 29.5 C 11.81 g/m*3 29.5 C 11.3 km/h
212 12-06-2020 17:35:00 29.7 C 11.64 g/m*3 29.7 C 14.5 km/h
213 12-06-2020 17:40:00 29.6 C 10.98 g/m*3 29.6 C 14.5 km/h
214 12-06-2020 17:45:00 29.6 C 11.28 g/m*3 29.6 C 17.7 km/h
215 12-06-2020 17:50:00 29.8 C 11.1 g/m*3 29.8 C 8.1 km/h
216 12-06-2020 17:55:00 29.8 C 11.4 g/m*3 29.8 C 12.9 km/h
217 12-06-2020 18:00:00 29.8 C 11.4 g/m*3 29.8 C 14.5 km/h
218 12-06-2020 18:05:00 29.4 C 11.15 g/m*3 29.4 C 11.3 km/h
219 12-06-2020 18:10:00 29.4 C 11.45 g/m*3 29.4 C 8.1 km/h
220 12-06-2020 18:15:00 29.6 C 11.28 g/m*3 29.6 C 12.9 km/h
221 12-06-2020 18:20:00 29.6 C 11.28 g/m*3 29.6 C 14.5 km/h
222 12-06-2020 18:25:00 29.2 C 11.32 g/m*3 29.2 C 11.3 km/h
223 12-06-2020 18:30:00 29.1 C 11.26 g/m*3 29.1 C 11.3 km/h
224 12-06-2020 18:35:00 29.3 C 11.09 g/m*3 29.3 C 8.1 km/h
225 12-06-2020 18:40:00 29.7 C 11.64 g/m*3 29.7 C 8.1 km/h
Sensor: Nr:Datum:Temp:Abs-Feuchte:Windchill:Wind:
Aussen-T/F 226 12-06-2020 18:45:00 30.1 C 11.89 g/m*3 30.1 C 6.4 km/h
227 12-06-2020 18:50:00 30.2 C 11.65 g/m*3 30.2 C 12.9 km/h
228 12-06-2020 18:55:00 29.7 C 11.34 g/m*3 29.7 C 9.7 km/h
229 12-06-2020 19:00:00 29.1 C 11.55 g/m*3 29.1 C 8.1 km/h
230 12-06-2020 19:05:00 28.7 C 12.15 g/m*3 28.7 C 6.4 km/h
231 12-06-2020 19:10:00 28.5 C 11.74 g/m*3 28.5 C 1.6 km/h
232 12-06-2020 19:15:00 28.4 C 11.95 g/m*3 28.4 C 8.1 km/h
233 12-06-2020 19:20:00 28.4 C 11.67 g/m*3 28.4 C 6.4 km/h
234 12-06-2020 19:25:00 28.4 C 11.95 g/m*3 28.4 C 6.4 km/h
235 12-06-2020 19:30:00 28.5 C 11.74 g/m*3 28.5 C 9.7 km/h
236 12-06-2020 19:35:00 28.3 C 11.89 g/m*3 28.3 C 9.7 km/h
237 12-06-2020 19:40:00 28.1 C 13.4 g/m*3 28.1 C 3.2 km/h
238 12-06-2020 19:45:00 27.9 C 11.9 g/m*3 27.9 C 6.4 km/h
239 12-06-2020 19:50:00 27.8 C 12.1 g/m*3 27.8 C 9.7 km/h
240 12-06-2020 19:55:00 27.7 C 12.3 g/m*3 27.7 C 6.4 km/h
241 12-06-2020 20:00:00 27.8 C 14.26 g/m*3 27.8 C 4.8 km/h
242 12-06-2020 20:05:00 27.9 C 12.44 g/m*3 27.9 C 6.4 km/h
243 12-06-2020 20:10:00 27.9 C 12.17 g/m*3 27.9 C 4.8 km/h
244 12-06-2020 20:15:00 27.9 C 12.98 g/m*3 27.9 C 4.8 km/h
245 12-06-2020 20:20:00 27.9 C 14.6 g/m*3 27.9 C 3.2 km/h
246 12-06-2020 20:25:00 27.8 C 14.52 g/m*3 27.8 C 4.8 km/h
247 12-06-2020 20:30:00 27.3 C 13.61 g/m*3 27.3 C 4.8 km/h
248 12-06-2020 20:35:00 26.8 C 14.25 g/m*3 26.8 C 3.2 km/h
249 12-06-2020 20:40:00 26.3 C 14.11 g/m*3 26.3 C 3.2 km/h
250 12-06-2020 20:45:00 25.7 C 13.89 g/m*3 25.7 C 4.8 km/h
Sensor: Nr:Datum:Temp:Abs-Feuchte:Windchill:Wind:
Aussen-T/F 251 12-06-2020 20:50:00 25 C 13.81 g/m*3 25 C 6.4 km/h
252 12-06-2020 20:55:00 24.4 C 13.58 g/m*3 24.4 C 3.2 km/h
253 12-06-2020 21:00:00 23.9 C 13.41 g/m*3 23.9 C 4.8 km/h
254 12-06-2020 21:05:00 23.5 C 13.32 g/m*3 23.5 C 4.8 km/h
255 12-06-2020 21:10:00 23.1 C 13.23 g/m*3 23.1 C 6.4 km/h
256 12-06-2020 21:15:00 22.8 C 13.21 g/m*3 22.8 C 8.1 km/h
257 12-06-2020 21:20:00 22.5 C 13.18 g/m*3 22.5 C 8.1 km/h
258 12-06-2020 21:25:00 22.3 C 13.23 g/m*3 22.3 C 8.1 km/h
259 12-06-2020 21:30:00 22.1 C 13.27 g/m*3 22.1 C 4.8 km/h
260 12-06-2020 21:35:00 21.9 C 13.31 g/m*3 21.9 C 4.8 km/h
261 12-06-2020 21:40:00 21.7 C 13.16 g/m*3 21.7 C 0 km/h
262 12-06-2020 21:45:00 21.5 C 13.01 g/m*3 21.5 C 1.6 km/h
263 12-06-2020 21:50:00 21.3 C 12.86 g/m*3 21.3 C 6.4 km/h
264 12-06-2020 21:55:00 21.2 C 12.97 g/m*3 21.2 C 6.4 km/h
265 12-06-2020 22:00:00 21.1 C 12.9 g/m*3 21.1 C 4.8 km/h
266 12-06-2020 22:05:00 20.9 C 12.93 g/m*3 20.9 C 6.4 km/h
267 12-06-2020 22:10:00 20.8 C 13.04 g/m*3 20.8 C 4.8 km/h
268 12-06-2020 22:15:00 20.7 C 13.14 g/m*3 20.7 C 6.4 km/h
269 12-06-2020 22:20:00 20.5 C 12.99 g/m*3 20.5 C 4.8 km/h
270 12-06-2020 22:25:00 20.4 C 12.91 g/m*3 20.4 C 8.1 km/h
271 12-06-2020 22:30:00 20.3 C 12.84 g/m*3 20.3 C 6.4 km/h
272 12-06-2020 22:35:00 20.1 C 12.69 g/m*3 20.1 C 4.8 km/h
273 12-06-2020 22:40:00 20.1 C 13.04 g/m*3 20.1 C 3.2 km/h
274 12-06-2020 22:45:00 19.9 C 12.89 g/m*3 19.9 C 0 km/h
275 12-06-2020 22:50:00 19.8 C 12.98 g/m*3 19.8 C 0 km/h
Sensor: Nr:Datum:Temp:Abs-Feuchte:Windchill:Wind:
Aussen-T/F 276 12-06-2020 22:55:00 19.7 C 12.91 g/m*3 19.7 C 0 km/h
277 12-06-2020 23:00:00 19.4 C 12.85 g/m*3 19.4 C 0 km/h
278 12-06-2020 23:05:00 19.3 C 12.94 g/m*3 19.3 C 3.2 km/h
279 12-06-2020 23:10:00 19.2 C 12.7 g/m*3 19.2 C 6.4 km/h
280 12-06-2020 23:15:00 19.1 C 12.95 g/m*3 19.1 C 3.2 km/h
281 12-06-2020 23:20:00 18.9 C 12.8 g/m*3 18.9 C 1.6 km/h
282 12-06-2020 23:25:00 18.8 C 12.88 g/m*3 18.8 C 0 km/h
283 12-06-2020 23:30:00 18.7 C 12.81 g/m*3 18.7 C 0 km/h
284 12-06-2020 23:35:00 18.6 C 12.89 g/m*3 18.6 C 0 km/h
285 12-06-2020 23:40:00 18.4 C 12.74 g/m*3 18.4 C 0 km/h
286 12-06-2020 23:45:00 18.3 C 12.66 g/m*3 18.3 C 0 km/h
287 12-06-2020 23:50:00 18.2 C 12.59 g/m*3 18.2 C 0 km/h
288 12-06-2020 23:55:00 18.1 C 12.67 g/m*3 18.1 C 0 km/h
289 13-06-2020 00:00:00 18 C 12.59 g/m*3 18 C 0 km/h
290 13-06-2020 00:05:00 17.9 C 12.67 g/m*3 17.9 C 0 km/h
291 13-06-2020 00:10:00 17.8 C 12.6 g/m*3 17.8 C 0 km/h
292 13-06-2020 00:15:00 17.7 C 12.52 g/m*3 17.7 C 0 km/h
293 13-06-2020 00:20:00 17.6 C 12.6 g/m*3 17.6 C 0 km/h
294 13-06-2020 00:25:00 17.5 C 12.52 g/m*3 17.5 C 0 km/h
295 13-06-2020 00:30:00 17.4 C 12.6 g/m*3 17.4 C 0 km/h
296 13-06-2020 00:35:00 17.4 C 12.6 g/m*3 17.4 C 9.7 km/h
297 13-06-2020 00:40:00 17.8 C 12.45 g/m*3 17.8 C 11.3 km/h
298 13-06-2020 00:45:00 18.4 C 12.58 g/m*3 18.4 C 12.9 km/h
299 13-06-2020 00:50:00 18.8 C 12.72 g/m*3 18.8 C 12.9 km/h
300 13-06-2020 00:55:00 18.9 C 12.8 g/m*3 18.9 C 9.7 km/h
Sensor: Nr:Datum:Temp:Abs-Feuchte:Windchill:Wind:
Aussen-T/F 301 13-06-2020 01:00:00 19.2 C 12.86 g/m*3 19.2 C 11.3 km/h
302 13-06-2020 01:05:00 19.2 C 12.86 g/m*3 19.2 C 12.9 km/h
303 13-06-2020 01:10:00 19.3 C 12.94 g/m*3 19.3 C 12.9 km/h
304 13-06-2020 01:15:00 19.3 C 12.94 g/m*3 19.3 C 8.1 km/h
305 13-06-2020 01:20:00 19.2 C 12.86 g/m*3 19.2 C 6.4 km/h
306 13-06-2020 01:25:00 19.2 C 13.03 g/m*3 19.2 C 14.5 km/h
307 13-06-2020 01:30:00 19.2 C 12.86 g/m*3 19.2 C 14.5 km/h
308 13-06-2020 01:35:00 19.3 C 12.94 g/m*3 19.3 C 12.9 km/h
309 13-06-2020 01:40:00 19.3 C 12.94 g/m*3 19.3 C 17.7 km/h
310 13-06-2020 01:45:00 19.4 C 12.85 g/m*3 19.4 C 17.7 km/h
311 13-06-2020 01:50:00 19.4 C 12.68 g/m*3 19.4 C 14.5 km/h
312 13-06-2020 01:55:00 19.5 C 12.42 g/m*3 19.5 C 16.1 km/h
313 13-06-2020 02:00:00 19.7 C 12.23 g/m*3 19.7 C 14.5 km/h
314 13-06-2020 02:05:00 19.7 C 12.23 g/m*3 19.7 C 6.4 km/h
315 13-06-2020 02:10:00 19.7 C 12.23 g/m*3 19.7 C 9.7 km/h
316 13-06-2020 02:15:00 19.5 C 12.08 g/m*3 19.5 C 4.8 km/h
317 13-06-2020 02:20:00 19.3 C 11.94 g/m*3 19.3 C 9.7 km/h
318 13-06-2020 02:25:00 19.2 C 11.87 g/m*3 19.2 C 9.7 km/h
319 13-06-2020 02:30:00 19.2 C 11.87 g/m*3 19.2 C 3.2 km/h
320 13-06-2020 02:35:00 19.1 C 11.8 g/m*3 19.1 C 6.4 km/h
321 13-06-2020 02:40:00 19 C 11.73 g/m*3 19 C 4.8 km/h
322 13-06-2020 02:45:00 18.9 C 11.66 g/m*3 18.9 C 4.8 km/h
323 13-06-2020 02:50:00 18.9 C 11.66 g/m*3 18.9 C 3.2 km/h
324 13-06-2020 02:55:00 18.8 C 11.6 g/m*3 18.8 C 4.8 km/h
325 13-06-2020 03:00:00 18.8 C 11.6 g/m*3 18.8 C 4.8 km/h
Sensor: Nr:Datum:Temp:Abs-Feuchte:Windchill:Wind:
Aussen-T/F 326 13-06-2020 03:05:00 18.7 C 11.53 g/m*3 18.7 C 4.8 km/h
327 13-06-2020 03:10:00 18.7 C 11.69 g/m*3 18.7 C 1.6 km/h
328 13-06-2020 03:15:00 18.6 C 11.62 g/m*3 18.6 C 0 km/h
329 13-06-2020 03:20:00 18.5 C 11.55 g/m*3 18.5 C 1.6 km/h
330 13-06-2020 03:25:00 18.4 C 11.64 g/m*3 18.4 C 1.6 km/h
331 13-06-2020 03:30:00 18.3 C 11.73 g/m*3 18.3 C 3.2 km/h
332 13-06-2020 03:35:00 18.2 C 11.81 g/m*3 18.2 C 3.2 km/h
333 13-06-2020 03:40:00 18.1 C 11.74 g/m*3 18.1 C 4.8 km/h
334 13-06-2020 03:45:00 17.9 C 11.76 g/m*3 17.9 C 4.8 km/h
335 13-06-2020 03:50:00 17.8 C 11.69 g/m*3 17.8 C 4.8 km/h
336 13-06-2020 03:55:00 17.8 C 11.84 g/m*3 17.8 C 3.2 km/h
337 13-06-2020 04:00:00 17.8 C 11.84 g/m*3 17.8 C 1.6 km/h
338 13-06-2020 04:05:00 17.7 C 11.92 g/m*3 17.7 C 4.8 km/h
339 13-06-2020 04:10:00 17.7 C 11.92 g/m*3 17.7 C 4.8 km/h
340 13-06-2020 04:15:00 17.6 C 11.85 g/m*3 17.6 C 4.8 km/h
341 13-06-2020 04:20:00 17.5 C 11.93 g/m*3 17.5 C 3.2 km/h
342 13-06-2020 04:25:00 17.4 C 11.86 g/m*3 17.4 C 1.6 km/h
343 13-06-2020 04:30:00 17.3 C 11.79 g/m*3 17.3 C 3.2 km/h
344 13-06-2020 04:35:00 17.3 C 11.93 g/m*3 17.3 C 3.2 km/h
345 13-06-2020 04:40:00 17.2 C 11.86 g/m*3 17.2 C 3.2 km/h
346 13-06-2020 04:45:00 17.2 C 11.86 g/m*3 17.2 C 0 km/h
347 13-06-2020 04:50:00 17.2 C 11.86 g/m*3 17.2 C 0 km/h
348 13-06-2020 04:55:00 17.1 C 11.94 g/m*3 17.1 C 0 km/h
349 13-06-2020 05:00:00 17.1 C 12.08 g/m*3 17.1 C 0 km/h
350 13-06-2020 05:05:00 17.1 C 12.08 g/m*3 17.1 C 4.8 km/h
Sensor: Nr:Datum:Temp:Abs-Feuchte:Windchill:Wind:
Aussen-T/F 351 13-06-2020 05:10:00 16.9 C 11.94 g/m*3 16.9 C 4.8 km/h
352 13-06-2020 05:15:00 16.8 C 11.87 g/m*3 16.8 C 0 km/h
353 13-06-2020 05:20:00 16.7 C 11.8 g/m*3 16.7 C 0 km/h
354 13-06-2020 05:25:00 16.6 C 11.87 g/m*3 16.6 C 0 km/h
355 13-06-2020 05:30:00 16.4 C 11.72 g/m*3 16.4 C 0 km/h
356 13-06-2020 05:35:00 16.3 C 11.79 g/m*3 16.3 C 0 km/h
357 13-06-2020 05:40:00 16.3 C 11.79 g/m*3 16.3 C 0 km/h
358 13-06-2020 05:45:00 16.2 C 11.86 g/m*3 16.2 C 0 km/h
359 13-06-2020 05:50:00 16.2 C 11.86 g/m*3 16.2 C 0 km/h
360 13-06-2020 05:55:00 16.1 C 11.79 g/m*3 16.1 C 0 km/h
361 13-06-2020 06:00:00 16.1 C 11.79 g/m*3 16.1 C 0 km/h
362 13-06-2020 06:05:00 16.1 C 11.93 g/m*3 16.1 C 0 km/h
363 13-06-2020 06:10:00 16.1 C 11.93 g/m*3 16.1 C 0 km/h
364 13-06-2020 06:15:00 16.1 C 11.93 g/m*3 16.1 C 0 km/h
365 13-06-2020 06:20:00 16.1 C 11.93 g/m*3 16.1 C 0 km/h
366 13-06-2020 06:25:00 16 C 11.85 g/m*3 16 C 0 km/h
367 13-06-2020 06:30:00 16 C 11.99 g/m*3 16 C 0 km/h
368 13-06-2020 06:35:00 16.1 C 12.06 g/m*3 16.1 C 0 km/h
369 13-06-2020 06:40:00 16.1 C 12.06 g/m*3 16.1 C 0 km/h
370 13-06-2020 06:45:00 16.1 C 12.06 g/m*3 16.1 C 0 km/h
371 13-06-2020 06:50:00 16.2 C 12.27 g/m*3 16.2 C 0 km/h
372 13-06-2020 06:55:00 16.3 C 12.21 g/m*3 16.3 C 3.2 km/h
373 13-06-2020 07:00:00 16.4 C 12.28 g/m*3 16.4 C 8.1 km/h
374 13-06-2020 07:05:00 16.6 C 12.29 g/m*3 16.6 C 8.1 km/h
375 13-06-2020 07:10:00 16.6 C 12.29 g/m*3 16.6 C 4.8 km/h
Sensor: Nr:Datum:Temp:Abs-Feuchte:Windchill:Wind:
Aussen-T/F 376 13-06-2020 07:15:00 16.7 C 12.36 g/m*3 16.7 C 3.2 km/h
377 13-06-2020 07:20:00 16.8 C 12.44 g/m*3 16.8 C 1.6 km/h
378 13-06-2020 07:25:00 16.9 C 12.37 g/m*3 16.9 C 0 km/h
379 13-06-2020 07:30:00 16.9 C 12.37 g/m*3 16.9 C 0 km/h
380 13-06-2020 07:35:00 17 C 12.59 g/m*3 17 C 0 km/h
381 13-06-2020 07:40:00 17.1 C 12.52 g/m*3 17.1 C 1.6 km/h
382 13-06-2020 07:45:00 17.1 C 12.52 g/m*3 17.1 C 0 km/h
383 13-06-2020 07:50:00 17.1 C 12.37 g/m*3 17.1 C 1.6 km/h
384 13-06-2020 07:55:00 17.1 C 12.52 g/m*3 17.1 C 0 km/h
385 13-06-2020 08:00:00 17.1 C 12.52 g/m*3 17.1 C 0 km/h
386 13-06-2020 08:05:00 17 C 12.44 g/m*3 17 C 1.6 km/h
387 13-06-2020 08:10:00 16.9 C 12.51 g/m*3 16.9 C 0 km/h
388 13-06-2020 08:15:00 16.9 C 12.51 g/m*3 16.9 C 0 km/h
389 13-06-2020 08:20:00 16.9 C 12.51 g/m*3 16.9 C 0 km/h
390 13-06-2020 08:25:00 16.9 C 12.66 g/m*3 16.9 C 0 km/h
391 13-06-2020 08:30:00 17.1 C 12.96 g/m*3 17.1 C 0 km/h
392 13-06-2020 08:35:00 17.4 C 13.04 g/m*3 17.4 C 0 km/h
393 13-06-2020 08:40:00 17.7 C 13.28 g/m*3 17.7 C 1.6 km/h
394 13-06-2020 08:45:00 18.3 C 13.13 g/m*3 18.3 C 1.6 km/h
395 13-06-2020 08:50:00 18.8 C 13.05 g/m*3 18.8 C 0 km/h
396 13-06-2020 08:55:00 19.2 C 13.19 g/m*3 19.2 C 0 km/h
397 13-06-2020 09:00:00 19.5 C 13.26 g/m*3 19.5 C 4.8 km/h
398 13-06-2020 09:05:00 19.8 C 13.15 g/m*3 19.8 C 4.8 km/h
399 13-06-2020 09:10:00 20 C 13.31 g/m*3 20 C 4.8 km/h
400 13-06-2020 09:15:00 20.2 C 13.46 g/m*3 20.2 C 6.4 km/h
Sensor: Nr:Datum:Temp:Abs-Feuchte:Windchill:Wind:
Aussen-T/F 401 13-06-2020 09:20:00 20.3 C 13.54 g/m*3 20.3 C 8.1 km/h
402 13-06-2020 09:25:00 20.4 C 13.44 g/m*3 20.4 C 9.7 km/h
403 13-06-2020 09:30:00 20.5 C 13.52 g/m*3 20.5 C 6.4 km/h
404 13-06-2020 09:35:00 20.6 C 13.78 g/m*3 20.6 C 1.6 km/h
405 13-06-2020 09:40:00 20.8 C 13.94 g/m*3 20.8 C 3.2 km/h
406 13-06-2020 09:45:00 20.8 C 13.58 g/m*3 20.8 C 4.8 km/h
407 13-06-2020 09:50:00 20.8 C 13.76 g/m*3 20.8 C 4.8 km/h
408 13-06-2020 09:55:00 20.8 C 13.76 g/m*3 20.8 C 4.8 km/h
409 13-06-2020 10:00:00 20.8 C 13.94 g/m*3 20.8 C 8.1 km/h
410 13-06-2020 10:05:00 20.6 C 13.78 g/m*3 20.6 C 4.8 km/h
411 13-06-2020 10:10:00 20.6 C 13.96 g/m*3 20.6 C 0 km/h
412 13-06-2020 10:15:00 20.4 C 13.62 g/m*3 20.4 C 4.8 km/h
413 13-06-2020 10:20:00 20.4 C 13.98 g/m*3 20.4 C 1.6 km/h
414 13-06-2020 10:25:00 20.3 C 13.54 g/m*3 20.3 C 4.8 km/h
415 13-06-2020 10:30:00 20.3 C 13.72 g/m*3 20.3 C 6.4 km/h
416 13-06-2020 10:35:00 20.3 C 13.72 g/m*3 20.3 C 4.8 km/h
417 13-06-2020 10:40:00 20.2 C 13.64 g/m*3 20.2 C 6.4 km/h
418 13-06-2020 10:45:00 20.2 C 13.64 g/m*3 20.2 C 6.4 km/h
419 13-06-2020 10:50:00 20.2 C 13.64 g/m*3 20.2 C 4.8 km/h
420 13-06-2020 10:55:00 20.2 C 13.64 g/m*3 20.2 C 3.2 km/h
421 13-06-2020 11:00:00 20.2 C 13.46 g/m*3 20.2 C 4.8 km/h
422 13-06-2020 11:05:00 20.2 C 13.29 g/m*3 20.2 C 6.4 km/h
423 13-06-2020 11:10:00 20.3 C 13.19 g/m*3 20.3 C 4.8 km/h
424 13-06-2020 11:15:00 20.4 C 13.09 g/m*3 20.4 C 4.8 km/h
425 13-06-2020 11:20:00 20.6 C 12.89 g/m*3 20.6 C 4.8 km/h
Sensor: Nr:Datum:Temp:Abs-Feuchte:Windchill:Wind:
Aussen-T/F 426 13-06-2020 11:25:00 20.7 C 12.96 g/m*3 20.7 C 6.4 km/h
427 13-06-2020 11:30:00 20.8 C 12.86 g/m*3 20.8 C 6.4 km/h
428 13-06-2020 11:35:00 20.8 C 12.86 g/m*3 20.8 C 8.1 km/h
429 13-06-2020 11:40:00 21 C 13.19 g/m*3 21 C 4.8 km/h
430 13-06-2020 11:45:00 21.1 C 13.08 g/m*3 21.1 C 9.7 km/h
431 13-06-2020 11:50:00 21.1 C 13.08 g/m*3 21.1 C 8.1 km/h
432 13-06-2020 11:55:00 21.1 C 13.08 g/m*3 21.1 C 6.4 km/h
433 13-06-2020 12:00:00 21.1 C 13.08 g/m*3 21.1 C 6.4 km/h
434 13-06-2020 12:05:00 20.9 C 12.75 g/m*3 20.9 C 6.4 km/h
435 13-06-2020 12:10:00 20.9 C 13.11 g/m*3 20.9 C 3.2 km/h
436 13-06-2020 12:15:00 20.9 C 13.11 g/m*3 20.9 C 3.2 km/h
437 13-06-2020 12:20:00 20.9 C 13.3 g/m*3 20.9 C 1.6 km/h
438 13-06-2020 12:25:00 20.9 C 13.48 g/m*3 20.9 C 0 km/h
439 13-06-2020 12:30:00 20.9 C 13.66 g/m*3 20.9 C 0 km/h
440 13-06-2020 12:35:00 21 C 13.92 g/m*3 21 C 0 km/h
441 13-06-2020 12:40:00 20.9 C 14.02 g/m*3 20.9 C 0 km/h
442 13-06-2020 12:45:00 20.9 C 14.21 g/m*3 20.9 C 1.6 km/h
443 13-06-2020 12:50:00 20.8 C 14.3 g/m*3 20.8 C 0 km/h
444 13-06-2020 12:55:00 20.8 C 14.3 g/m*3 20.8 C 0 km/h
445 13-06-2020 13:00:00 20.7 C 14.4 g/m*3 20.7 C 0 km/h
446 13-06-2020 13:05:00 20.6 C 14.5 g/m*3 20.6 C 0 km/h
447 13-06-2020 13:10:00 20.5 C 14.41 g/m*3 20.5 C 0 km/h
448 13-06-2020 13:15:00 20.4 C 14.33 g/m*3 20.4 C 0 km/h
449 13-06-2020 13:20:00 20.3 C 14.42 g/m*3 20.3 C 0 km/h
450 13-06-2020 13:25:00 20.2 C 14.34 g/m*3 20.2 C 0 km/h
Sensor: Nr:Datum:Temp:Abs-Feuchte:Windchill:Wind:
Aussen-T/F 451 13-06-2020 13:30:00 20.2 C 14.51 g/m*3 20.2 C 0 km/h
452 13-06-2020 13:35:00 20.1 C 14.43 g/m*3 20.1 C 0 km/h
453 13-06-2020 13:40:00 20.1 C 14.43 g/m*3 20.1 C 0 km/h
454 13-06-2020 13:45:00 20.1 C 14.25 g/m*3 20.1 C 0 km/h
455 13-06-2020 13:50:00 20.3 C 14.07 g/m*3 20.3 C 0 km/h
456 13-06-2020 13:55:00 20.6 C 13.6 g/m*3 20.6 C 0 km/h
457 13-06-2020 14:00:00 20.8 C 13.4 g/m*3 20.8 C 0 km/h
458 13-06-2020 14:05:00 21.1 C 13.82 g/m*3 21.1 C 0 km/h
459 13-06-2020 14:10:00 21.2 C 13.71 g/m*3 21.2 C 0 km/h
460 13-06-2020 14:15:00 21.3 C 14.35 g/m*3 21.3 C 0 km/h
461 13-06-2020 14:20:00 21.4 C 14.06 g/m*3 21.4 C 0 km/h
462 13-06-2020 14:25:00 21.5 C 14.14 g/m*3 21.5 C 0 km/h
463 13-06-2020 14:30:00 21.6 C 13.66 g/m*3 21.6 C 0 km/h
464 13-06-2020 14:35:00 21.7 C 13.93 g/m*3 21.7 C 3.2 km/h
465 13-06-2020 14:40:00 21.8 C 13.24 g/m*3 21.8 C 6.4 km/h
466 13-06-2020 14:45:00 21.9 C 13.51 g/m*3 21.9 C 6.4 km/h
467 13-06-2020 14:50:00 22 C 13.39 g/m*3 22 C 4.8 km/h
468 13-06-2020 14:55:00 22.1 C 13.27 g/m*3 22.1 C 6.4 km/h
469 13-06-2020 15:00:00 22.2 C 13.15 g/m*3 22.2 C 6.4 km/h
470 13-06-2020 15:05:00 22.2 C 13.35 g/m*3 22.2 C 4.8 km/h
471 13-06-2020 15:10:00 22.3 C 13.43 g/m*3 22.3 C 6.4 km/h
472 13-06-2020 15:15:00 22.4 C 13.5 g/m*3 22.4 C 6.4 km/h
473 13-06-2020 15:20:00 22.8 C 13.82 g/m*3 22.8 C 9.7 km/h
474 13-06-2020 15:25:00 23.5 C 13.53 g/m*3 23.5 C 4.8 km/h
475 13-06-2020 15:30:00 23.8 C 13.34 g/m*3 23.8 C 9.7 km/h
Sensor: Nr:Datum:Temp:Abs-Feuchte:Windchill:Wind:
Aussen-T/F 476 13-06-2020 15:35:00 24 C 13.71 g/m*3 24 C 8.1 km/h
477 13-06-2020 15:40:00 24 C 13.49 g/m*3 24 C 6.4 km/h
478 13-06-2020 15:45:00 23.9 C 13.41 g/m*3 23.9 C 4.8 km/h
479 13-06-2020 15:50:00 23.9 C 13.63 g/m*3 23.9 C 4.8 km/h
480 13-06-2020 15:55:00 24 C 13.71 g/m*3 24 C 6.4 km/h
481 13-06-2020 16:00:00 24.4 C 13.8 g/m*3 24.4 C 9.7 km/h
482 13-06-2020 16:05:00 25.2 C 13.74 g/m*3 25.2 C 12.9 km/h
483 13-06-2020 16:10:00 25.4 C 13.65 g/m*3 25.4 C 11.3 km/h
484 13-06-2020 16:15:00 25.7 C 14.13 g/m*3 25.7 C 9.7 km/h
485 13-06-2020 16:20:00 25.8 C 14.45 g/m*3 25.8 C 8.1 km/h
486 13-06-2020 16:25:00 26.3 C 13.86 g/m*3 26.3 C 6.4 km/h
487 13-06-2020 16:30:00 26.3 C 14.11 g/m*3 26.3 C 8.1 km/h
488 13-06-2020 16:35:00 26.3 C 13.86 g/m*3 26.3 C 8.1 km/h
489 13-06-2020 16:40:00 26.2 C 13.79 g/m*3 26.2 C 6.4 km/h
490 13-06-2020 16:45:00 25.9 C 13.56 g/m*3 25.9 C 6.4 km/h
491 13-06-2020 16:50:00 25.7 C 14.13 g/m*3 25.7 C 4.8 km/h
492 13-06-2020 16:55:00 25.8 C 14.2 g/m*3 25.8 C 3.2 km/h
493 13-06-2020 17:00:00 26.1 C 13.71 g/m*3 26.1 C 3.2 km/h
494 13-06-2020 17:05:00 26.4 C 13.69 g/m*3 26.4 C 1.6 km/h
495 13-06-2020 17:10:00 26.8 C 13.24 g/m*3 26.8 C 8.1 km/h
496 13-06-2020 17:15:00 26.8 C 13.74 g/m*3 26.8 C 9.7 km/h
497 13-06-2020 17:20:00 27.1 C 12.68 g/m*3 27.1 C 6.4 km/h
498 13-06-2020 17:25:00 27.3 C 12.56 g/m*3 27.3 C 8.1 km/h
499 13-06-2020 17:30:00 27.4 C 11.58 g/m*3 27.4 C 8.1 km/h
500 13-06-2020 17:35:00 27.2 C 10.93 g/m*3 27.2 C 6.4 km/h
Sensor: Nr:Datum:Temp:Abs-Feuchte:Windchill:Wind:
Aussen-T/F 501 13-06-2020 17:40:00 27.1 C 10.61 g/m*3 27.1 C 8.1 km/h
502 13-06-2020 17:45:00 27.3 C 10.99 g/m*3 27.3 C 4.8 km/h
503 13-06-2020 17:50:00 27.6 C 11.17 g/m*3 27.6 C 3.2 km/h
504 13-06-2020 17:55:00 28 C 11.42 g/m*3 28 C 6.4 km/h
505 13-06-2020 18:00:00 28.4 C 11.12 g/m*3 28.4 C 9.7 km/h
506 13-06-2020 18:05:00 28.4 C 10.84 g/m*3 28.4 C 6.4 km/h
507 13-06-2020 18:10:00 28.7 C 11.59 g/m*3 28.7 C 6.4 km/h
508 13-06-2020 18:15:00 28.8 C 11.36 g/m*3 28.8 C 8.1 km/h
509 13-06-2020 18:20:00 28.7 C 11.02 g/m*3 28.7 C 6.4 km/h
510 13-06-2020 18:25:00 28.7 C 11.3 g/m*3 28.7 C 8.1 km/h
511 13-06-2020 18:30:00 28.6 C 10.96 g/m*3 28.6 C 8.1 km/h
512 13-06-2020 18:35:00 28.6 C 11.24 g/m*3 28.6 C 6.4 km/h
513 13-06-2020 18:40:00 28.4 C 11.12 g/m*3 28.4 C 11.3 km/h
514 13-06-2020 18:45:00 28.6 C 11.24 g/m*3 28.6 C 6.4 km/h
515 13-06-2020 18:50:00 28.7 C 11.02 g/m*3 28.7 C 9.7 km/h
516 13-06-2020 18:55:00 28.7 C 11.02 g/m*3 28.7 C 8.1 km/h
517 13-06-2020 19:00:00 28.8 C 11.36 g/m*3 28.8 C 9.7 km/h
518 13-06-2020 19:05:00 28.6 C 11.24 g/m*3 28.6 C 12.9 km/h
519 13-06-2020 19:10:00 28 C 10.88 g/m*3 28 C 9.7 km/h
520 13-06-2020 19:15:00 27.4 C 11.05 g/m*3 27.4 C 12.9 km/h
521 13-06-2020 19:20:00 26.8 C 10.94 g/m*3 26.8 C 8.1 km/h
522 13-06-2020 19:25:00 26.4 C 11.2 g/m*3 26.4 C 8.1 km/h
523 13-06-2020 19:30:00 26.2 C 11.82 g/m*3 26.2 C 4.8 km/h
524 13-06-2020 19:35:00 25.9 C 11.62 g/m*3 25.9 C 1.6 km/h
525 13-06-2020 19:40:00 25.8 C 11.8 g/m*3 25.8 C 6.4 km/h
Sensor: Nr:Datum:Temp:Abs-Feuchte:Windchill:Wind:
Aussen-T/F 526 13-06-2020 19:45:00 25.6 C 12.38 g/m*3 25.6 C 4.8 km/h
527 13-06-2020 19:50:00 25.4 C 12.71 g/m*3 25.4 C 0 km/h
528 13-06-2020 19:55:00 25.2 C 12.34 g/m*3 25.2 C 3.2 km/h
529 13-06-2020 20:00:00 25 C 12.66 g/m*3 25 C 3.2 km/h
530 13-06-2020 20:05:00 24.9 C 11.9 g/m*3 24.9 C 4.8 km/h
531 13-06-2020 20:10:00 25.1 C 12.27 g/m*3 25.1 C 4.8 km/h
532 13-06-2020 20:15:00 25.2 C 12.57 g/m*3 25.2 C 0 km/h
533 13-06-2020 20:20:00 25.2 C 12.8 g/m*3 25.2 C 0 km/h
534 13-06-2020 20:25:00 25 C 12.66 g/m*3 25 C 4.8 km/h
535 13-06-2020 20:30:00 24.7 C 12.22 g/m*3 24.7 C 8.1 km/h
536 13-06-2020 20:35:00 24.4 C 12.24 g/m*3 24.4 C 3.2 km/h
537 13-06-2020 20:40:00 24.3 C 12.17 g/m*3 24.3 C 1.6 km/h
538 13-06-2020 20:45:00 24.1 C 12.25 g/m*3 24.1 C 1.6 km/h
539 13-06-2020 20:50:00 23.8 C 12.26 g/m*3 23.8 C 0 km/h
540 13-06-2020 20:55:00 23.6 C 12.34 g/m*3 23.6 C 1.6 km/h
541 13-06-2020 21:00:00 23.4 C 12.2 g/m*3 23.4 C 4.8 km/h
542 13-06-2020 21:05:00 23.3 C 12.13 g/m*3 23.3 C 3.2 km/h
543 13-06-2020 21:10:00 23.1 C 12.2 g/m*3 23.1 C 1.6 km/h
544 13-06-2020 21:15:00 23 C 12.13 g/m*3 23 C 8.1 km/h
545 13-06-2020 21:20:00 22.9 C 12.26 g/m*3 22.9 C 1.6 km/h
546 13-06-2020 21:25:00 22.8 C 12.8 g/m*3 22.8 C 6.4 km/h
547 13-06-2020 21:30:00 22.6 C 12.66 g/m*3 22.6 C 9.7 km/h
548 13-06-2020 21:35:00 22.3 C 12.64 g/m*3 22.3 C 4.8 km/h
549 13-06-2020 21:40:00 22.1 C 12.69 g/m*3 22.1 C 6.4 km/h
550 13-06-2020 21:45:00 21.8 C 12.66 g/m*3 21.8 C 8.1 km/h
Sensor: Nr:Datum:Temp:Abs-Feuchte:Windchill:Wind:
Aussen-T/F 551 13-06-2020 21:50:00 21.7 C 12.97 g/m*3 21.7 C 4.8 km/h
552 13-06-2020 21:55:00 21.5 C 12.82 g/m*3 21.5 C 4.8 km/h
553 13-06-2020 22:00:00 21.4 C 12.94 g/m*3 21.4 C 4.8 km/h
554 13-06-2020 22:05:00 21.3 C 12.86 g/m*3 21.3 C 4.8 km/h
555 13-06-2020 22:10:00 21.2 C 12.79 g/m*3 21.2 C 4.8 km/h
556 13-06-2020 22:15:00 21.2 C 12.79 g/m*3 21.2 C 11.3 km/h
557 13-06-2020 22:20:00 21.1 C 12.71 g/m*3 21.1 C 11.3 km/h
558 13-06-2020 22:25:00 21.1 C 12.9 g/m*3 21.1 C 4.8 km/h
559 13-06-2020 22:30:00 20.9 C 12.57 g/m*3 20.9 C 8.1 km/h
560 13-06-2020 22:35:00 20.8 C 12.67 g/m*3 20.8 C 4.8 km/h
561 13-06-2020 22:40:00 20.8 C 12.67 g/m*3 20.8 C 4.8 km/h
562 13-06-2020 22:45:00 20.7 C 12.6 g/m*3 20.7 C 11.3 km/h
563 13-06-2020 22:50:00 20.7 C 12.6 g/m*3 20.7 C 8.1 km/h
564 13-06-2020 22:55:00 20.7 C 12.6 g/m*3 20.7 C 3.2 km/h
565 13-06-2020 23:00:00 20.7 C 12.6 g/m*3 20.7 C 1.6 km/h
566 13-06-2020 23:05:00 20.6 C 12.71 g/m*3 20.6 C 3.2 km/h
567 13-06-2020 23:10:00 20.4 C 12.38 g/m*3 20.4 C 4.8 km/h
568 13-06-2020 23:15:00 20.3 C 12.49 g/m*3 20.3 C 6.4 km/h
569 13-06-2020 23:20:00 20.2 C 12.41 g/m*3 20.2 C 1.6 km/h
570 13-06-2020 23:25:00 20.1 C 12.52 g/m*3 20.1 C 4.8 km/h
571 13-06-2020 23:30:00 19.9 C 12.37 g/m*3 19.9 C 0 km/h
572 13-06-2020 23:35:00 19.8 C 12.47 g/m*3 19.8 C 4.8 km/h
573 13-06-2020 23:40:00 19.7 C 12.23 g/m*3 19.7 C 3.2 km/h
574 13-06-2020 23:45:00 19.6 C 12.49 g/m*3 19.6 C 3.2 km/h
575 13-06-2020 23:50:00 19.4 C 12.35 g/m*3 19.4 C 3.2 km/h
Sensor: Nr:Datum:Temp:Abs-Feuchte:Windchill:Wind:
Aussen-T/F 576 13-06-2020 23:55:00 19.3 C 12.44 g/m*3 19.3 C 0 km/h
577 14-06-2020 00:00:00 19.1 C 12.46 g/m*3 19.1 C 1.6 km/h
578 14-06-2020 00:05:00 18.8 C 12.24 g/m*3 18.8 C 4.8 km/h
579 14-06-2020 00:10:00 18.6 C 12.26 g/m*3 18.6 C 6.4 km/h
580 14-06-2020 00:15:00 18.5 C 12.34 g/m*3 18.5 C 3.2 km/h
581 14-06-2020 00:20:00 18.4 C 12.27 g/m*3 18.4 C 0 km/h
582 14-06-2020 00:25:00 18.3 C 12.35 g/m*3 18.3 C 0 km/h
583 14-06-2020 00:30:00 18.2 C 12.28 g/m*3 18.2 C 0 km/h
584 14-06-2020 00:35:00 18.2 C 12.43 g/m*3 18.2 C 0 km/h
585 14-06-2020 00:40:00 18.2 C 12.43 g/m*3 18.2 C 0 km/h
586 14-06-2020 00:45:00 18.1 C 12.52 g/m*3 18.1 C 0 km/h
587 14-06-2020 00:50:00 18.1 C 12.52 g/m*3 18.1 C 0 km/h
588 14-06-2020 00:55:00 18 C 12.44 g/m*3 18 C 0 km/h
589 14-06-2020 01:00:00 17.9 C 12.37 g/m*3 17.9 C 0 km/h
590 14-06-2020 01:05:00 17.9 C 12.37 g/m*3 17.9 C 0 km/h
591 14-06-2020 01:10:00 17.8 C 12.45 g/m*3 17.8 C 0 km/h
592 14-06-2020 01:15:00 17.8 C 12.6 g/m*3 17.8 C 0 km/h
593 14-06-2020 01:20:00 17.8 C 12.45 g/m*3 17.8 C 0 km/h
594 14-06-2020 01:25:00 17.8 C 12.45 g/m*3 17.8 C 0 km/h
595 14-06-2020 01:30:00 17.8 C 12.6 g/m*3 17.8 C 0 km/h
596 14-06-2020 01:35:00 17.8 C 12.6 g/m*3 17.8 C 0 km/h
597 14-06-2020 01:40:00 17.8 C 12.6 g/m*3 17.8 C 0 km/h
598 14-06-2020 01:45:00 17.8 C 12.6 g/m*3 17.8 C 0 km/h
599 14-06-2020 01:50:00 17.8 C 12.6 g/m*3 17.8 C 0 km/h
600 14-06-2020 01:55:00 17.8 C 12.75 g/m*3 17.8 C 0 km/h
Sensor: Nr:Datum:Temp:Abs-Feuchte:Windchill:Wind:
Aussen-T/F 601 14-06-2020 02:00:00 17.8 C 12.75 g/m*3 17.8 C 0 km/h
602 14-06-2020 02:05:00 17.8 C 12.75 g/m*3 17.8 C 0 km/h
603 14-06-2020 02:10:00 17.8 C 12.75 g/m*3 17.8 C 0 km/h
604 14-06-2020 02:15:00 17.8 C 12.75 g/m*3 17.8 C 0 km/h
605 14-06-2020 02:20:00 17.7 C 12.67 g/m*3 17.7 C 0 km/h
606 14-06-2020 02:25:00 17.7 C 12.67 g/m*3 17.7 C 0 km/h
607 14-06-2020 02:30:00 17.7 C 12.67 g/m*3 17.7 C 0 km/h
608 14-06-2020 02:35:00 17.7 C 12.82 g/m*3 17.7 C 0 km/h
609 14-06-2020 02:40:00 17.6 C 12.75 g/m*3 17.6 C 0 km/h
610 14-06-2020 02:45:00 17.6 C 12.6 g/m*3 17.6 C 0 km/h
611 14-06-2020 02:50:00 17.5 C 12.67 g/m*3 17.5 C 0 km/h
612 14-06-2020 02:55:00 17.4 C 12.6 g/m*3 17.4 C 0 km/h
613 14-06-2020 03:00:00 17.4 C 12.45 g/m*3 17.4 C 0 km/h
614 14-06-2020 03:05:00 17.3 C 12.37 g/m*3 17.3 C 0 km/h
615 14-06-2020 03:10:00 17.3 C 12.52 g/m*3 17.3 C 0 km/h
616 14-06-2020 03:15:00 17.3 C 12.52 g/m*3 17.3 C 0 km/h
617 14-06-2020 03:20:00 17.3 C 12.52 g/m*3 17.3 C 0 km/h
618 14-06-2020 03:25:00 17.3 C 12.52 g/m*3 17.3 C 0 km/h
619 14-06-2020 03:30:00 17.3 C 12.52 g/m*3 17.3 C 0 km/h
620 14-06-2020 03:35:00 17.2 C 12.45 g/m*3 17.2 C 0 km/h
621 14-06-2020 03:40:00 17.2 C 12.45 g/m*3 17.2 C 0 km/h
622 14-06-2020 03:45:00 17.2 C 12.45 g/m*3 17.2 C 0 km/h
623 14-06-2020 03:50:00 17.2 C 12.45 g/m*3 17.2 C 0 km/h
624 14-06-2020 03:55:00 17.1 C 12.37 g/m*3 17.1 C 0 km/h
625 14-06-2020 04:00:00 17.1 C 12.37 g/m*3 17.1 C 0 km/h
Sensor: Nr:Datum:Temp:Abs-Feuchte:Windchill:Wind:
Aussen-T/F 626 14-06-2020 04:05:00 17.1 C 12.37 g/m*3 17.1 C 0 km/h
627 14-06-2020 04:10:00 17.1 C 12.37 g/m*3 17.1 C 0 km/h
628 14-06-2020 04:15:00 17.1 C 12.37 g/m*3 17.1 C 3.2 km/h
629 14-06-2020 04:20:00 17.1 C 12.23 g/m*3 17.1 C 4.8 km/h
630 14-06-2020 04:25:00 17.2 C 12.3 g/m*3 17.2 C 4.8 km/h
631 14-06-2020 04:30:00 17.3 C 12.37 g/m*3 17.3 C 3.2 km/h
632 14-06-2020 04:35:00 17.4 C 12.3 g/m*3 17.4 C 4.8 km/h
633 14-06-2020 04:40:00 17.7 C 12.37 g/m*3 17.7 C 11.3 km/h
634 14-06-2020 04:45:00 17.8 C 12.45 g/m*3 17.8 C 11.3 km/h
635 14-06-2020 04:50:00 17.9 C 12.52 g/m*3 17.9 C 6.4 km/h
636 14-06-2020 04:55:00 17.9 C 12.52 g/m*3 17.9 C 8.1 km/h
637 14-06-2020 05:00:00 17.8 C 12.45 g/m*3 17.8 C 6.4 km/h
638 14-06-2020 05:05:00 17.8 C 12.45 g/m*3 17.8 C 6.4 km/h
639 14-06-2020 05:10:00 17.8 C 12.45 g/m*3 17.8 C 4.8 km/h
640 14-06-2020 05:15:00 17.8 C 12.45 g/m*3 17.8 C 6.4 km/h
641 14-06-2020 05:20:00 17.7 C 12.37 g/m*3 17.7 C 6.4 km/h
642 14-06-2020 05:25:00 17.7 C 12.37 g/m*3 17.7 C 4.8 km/h
643 14-06-2020 05:30:00 17.7 C 12.37 g/m*3 17.7 C 1.6 km/h
644 14-06-2020 05:35:00 17.7 C 12.52 g/m*3 17.7 C 4.8 km/h
645 14-06-2020 05:40:00 17.7 C 12.52 g/m*3 17.7 C 4.8 km/h
646 14-06-2020 05:45:00 17.6 C 12.45 g/m*3 17.6 C 6.4 km/h
647 14-06-2020 05:50:00 17.6 C 12.45 g/m*3 17.6 C 6.4 km/h
648 14-06-2020 05:55:00 17.7 C 12.52 g/m*3 17.7 C 4.8 km/h
649 14-06-2020 06:00:00 17.7 C 12.52 g/m*3 17.7 C 6.4 km/h
650 14-06-2020 06:05:00 17.7 C 12.52 g/m*3 17.7 C 6.4 km/h
Sensor: Nr:Datum:Temp:Abs-Feuchte:Windchill:Wind:
Aussen-T/F 651 14-06-2020 06:10:00 17.7 C 12.52 g/m*3 17.7 C 8.1 km/h
652 14-06-2020 06:15:00 17.7 C 12.52 g/m*3 17.7 C 4.8 km/h
653 14-06-2020 06:20:00 17.8 C 12.45 g/m*3 17.8 C 11.3 km/h
654 14-06-2020 06:25:00 17.8 C 12.45 g/m*3 17.8 C 8.1 km/h
655 14-06-2020 06:30:00 17.8 C 12.45 g/m*3 17.8 C 8.1 km/h
656 14-06-2020 06:35:00 17.8 C 12.45 g/m*3 17.8 C 8.1 km/h
657 14-06-2020 06:40:00 17.9 C 12.67 g/m*3 17.9 C 8.1 km/h
658 14-06-2020 06:45:00 17.9 C 12.67 g/m*3 17.9 C 9.7 km/h
659 14-06-2020 06:50:00 17.9 C 12.52 g/m*3 17.9 C 6.4 km/h
660 14-06-2020 06:55:00 18 C 12.59 g/m*3 18 C 4.8 km/h
661 14-06-2020 07:00:00 18.1 C 12.67 g/m*3 18.1 C 4.8 km/h
662 14-06-2020 07:05:00 18.2 C 12.75 g/m*3 18.2 C 4.8 km/h
663 14-06-2020 07:10:00 18.3 C 12.66 g/m*3 18.3 C 4.8 km/h
664 14-06-2020 07:15:00 18.4 C 12.74 g/m*3 18.4 C 4.8 km/h
665 14-06-2020 07:20:00 18.5 C 12.82 g/m*3 18.5 C 1.6 km/h
666 14-06-2020 07:25:00 18.6 C 12.73 g/m*3 18.6 C 4.8 km/h
667 14-06-2020 07:30:00 18.7 C 12.81 g/m*3 18.7 C 3.2 km/h
668 14-06-2020 07:35:00 18.7 C 12.81 g/m*3 18.7 C 4.8 km/h
669 14-06-2020 07:40:00 18.8 C 12.88 g/m*3 18.8 C 3.2 km/h
670 14-06-2020 07:45:00 18.8 C 12.88 g/m*3 18.8 C 1.6 km/h
671 14-06-2020 07:50:00 18.8 C 12.72 g/m*3 18.8 C 1.6 km/h
672 14-06-2020 07:55:00 18.9 C 12.96 g/m*3 18.9 C 6.4 km/h
673 14-06-2020 08:00:00 18.9 C 12.8 g/m*3 18.9 C 3.2 km/h
674 14-06-2020 08:05:00 19 C 12.71 g/m*3 19 C 4.8 km/h
675 14-06-2020 08:10:00 19.1 C 12.79 g/m*3 19.1 C 4.8 km/h
Sensor: Nr:Datum:Temp:Abs-Feuchte:Windchill:Wind:
Aussen-T/F 676 14-06-2020 08:15:00 19.1 C 12.79 g/m*3 19.1 C 4.8 km/h
677 14-06-2020 08:20:00 19.1 C 12.95 g/m*3 19.1 C 3.2 km/h
678 14-06-2020 08:25:00 19.1 C 12.95 g/m*3 19.1 C 0 km/h
679 14-06-2020 08:30:00 19.1 C 12.79 g/m*3 19.1 C 0 km/h
680 14-06-2020 08:35:00 19.1 C 12.79 g/m*3 19.1 C 3.2 km/h
681 14-06-2020 08:40:00 19.1 C 12.95 g/m*3 19.1 C 3.2 km/h
682 14-06-2020 08:45:00 19.1 C 12.95 g/m*3 19.1 C 3.2 km/h
683 14-06-2020 08:50:00 19.1 C 13.11 g/m*3 19.1 C 3.2 km/h
684 14-06-2020 08:55:00 19.1 C 13.11 g/m*3 19.1 C 1.6 km/h
685 14-06-2020 09:00:00 19.1 C 13.11 g/m*3 19.1 C 3.2 km/h
686 14-06-2020 09:05:00 19.1 C 13.44 g/m*3 19.1 C 3.2 km/h
687 14-06-2020 09:10:00 19.2 C 13.69 g/m*3 19.2 C 0 km/h
688 14-06-2020 09:15:00 19.2 C 13.69 g/m*3 19.2 C 1.6 km/h
689 14-06-2020 09:20:00 19.2 C 13.69 g/m*3 19.2 C 0 km/h
690 14-06-2020 09:25:00 19.1 C 13.61 g/m*3 19.1 C 1.6 km/h
691 14-06-2020 09:30:00 19.1 C 13.44 g/m*3 19.1 C 0 km/h
692 14-06-2020 09:35:00 19.1 C 13.61 g/m*3 19.1 C 1.6 km/h
693 14-06-2020 09:40:00 18.9 C 13.28 g/m*3 18.9 C 1.6 km/h
694 14-06-2020 09:45:00 18.9 C 13.45 g/m*3 18.9 C 0 km/h
695 14-06-2020 09:50:00 18.9 C 13.45 g/m*3 18.9 C 3.2 km/h
696 14-06-2020 09:55:00 18.9 C 13.28 g/m*3 18.9 C 4.8 km/h
697 14-06-2020 10:00:00 18.8 C 13.21 g/m*3 18.8 C 1.6 km/h
698 14-06-2020 10:05:00 18.9 C 13.12 g/m*3 18.9 C 0 km/h
699 14-06-2020 10:10:00 18.9 C 13.12 g/m*3 18.9 C 3.2 km/h
700 14-06-2020 10:15:00 18.9 C 13.12 g/m*3 18.9 C 1.6 km/h
Sensor: Nr:Datum:Temp:Abs-Feuchte:Windchill:Wind:
Aussen-T/F 701 14-06-2020 10:20:00 18.9 C 12.96 g/m*3 18.9 C 6.4 km/h
702 14-06-2020 10:25:00 18.9 C 12.96 g/m*3 18.9 C 6.4 km/h
703 14-06-2020 10:30:00 18.8 C 13.05 g/m*3 18.8 C 3.2 km/h
704 14-06-2020 10:35:00 18.9 C 13.12 g/m*3 18.9 C 3.2 km/h
705 14-06-2020 10:40:00 18.9 C 13.12 g/m*3 18.9 C 4.8 km/h
706 14-06-2020 10:45:00 18.9 C 13.12 g/m*3 18.9 C 4.8 km/h
707 14-06-2020 10:50:00 18.8 C 13.21 g/m*3 18.8 C 1.6 km/h
708 14-06-2020 10:55:00 18.8 C 13.05 g/m*3 18.8 C 9.7 km/h
709 14-06-2020 11:00:00 18.8 C 13.21 g/m*3 18.8 C 1.6 km/h
710 14-06-2020 11:05:00 18.7 C 13.29 g/m*3 18.7 C 1.6 km/h
711 14-06-2020 11:10:00 18.7 C 13.29 g/m*3 18.7 C 3.2 km/h
712 14-06-2020 11:15:00 18.7 C 13.13 g/m*3 18.7 C 8.1 km/h
713 14-06-2020 11:20:00 18.7 C 12.81 g/m*3 18.7 C 9.7 km/h
714 14-06-2020 11:25:00 18.8 C 12.88 g/m*3 18.8 C 4.8 km/h
715 14-06-2020 11:30:00 18.9 C 12.96 g/m*3 18.9 C 9.7 km/h
716 14-06-2020 11:35:00 19.1 C 13.11 g/m*3 19.1 C 4.8 km/h
717 14-06-2020 11:40:00 19.2 C 13.03 g/m*3 19.2 C 8.1 km/h
718 14-06-2020 11:45:00 19.2 C 13.03 g/m*3 19.2 C 8.1 km/h
719 14-06-2020 11:50:00 19.3 C 12.94 g/m*3 19.3 C 12.9 km/h
720 14-06-2020 11:55:00 19.4 C 13.01 g/m*3 19.4 C 12.9 km/h
721 14-06-2020 12:00:00 19.4 C 12.68 g/m*3 19.4 C 6.4 km/h
722 14-06-2020 12:05:00 19.4 C 12.35 g/m*3 19.4 C 11.3 km/h
723 14-06-2020 12:10:00 19.4 C 12.35 g/m*3 19.4 C 12.9 km/h
724 14-06-2020 12:15:00 19.4 C 12.35 g/m*3 19.4 C 11.3 km/h
725 14-06-2020 12:20:00 19.5 C 12.42 g/m*3 19.5 C 8.1 km/h
Sensor: Nr:Datum:Temp:Abs-Feuchte:Windchill:Wind:
Aussen-T/F 726 14-06-2020 12:25:00 19.6 C 12.49 g/m*3 19.6 C 6.4 km/h
727 14-06-2020 12:30:00 19.6 C 12.66 g/m*3 19.6 C 9.7 km/h
728 14-06-2020 12:35:00 19.7 C 12.91 g/m*3 19.7 C 4.8 km/h
729 14-06-2020 12:40:00 19.7 C 12.91 g/m*3 19.7 C 4.8 km/h
730 14-06-2020 12:45:00 19.6 C 12.66 g/m*3 19.6 C 11.3 km/h
731 14-06-2020 12:50:00 19.6 C 12.83 g/m*3 19.6 C 6.4 km/h
732 14-06-2020 12:55:00 19.5 C 12.75 g/m*3 19.5 C 4.8 km/h
733 14-06-2020 13:00:00 19.5 C 12.75 g/m*3 19.5 C 9.7 km/h
734 14-06-2020 13:05:00 19.4 C 12.68 g/m*3 19.4 C 9.7 km/h
735 14-06-2020 13:10:00 19.3 C 12.61 g/m*3 19.3 C 9.7 km/h
736 14-06-2020 13:15:00 19.3 C 12.77 g/m*3 19.3 C 11.3 km/h
737 14-06-2020 13:20:00 19.4 C 12.85 g/m*3 19.4 C 8.1 km/h
738 14-06-2020 13:25:00 19.6 C 13 g/m*3 19.6 C 8.1 km/h
739 14-06-2020 13:30:00 19.7 C 13.08 g/m*3 19.7 C 8.1 km/h
740 14-06-2020 13:35:00 19.9 C 13.06 g/m*3 19.9 C 8.1 km/h
741 14-06-2020 13:40:00 20.1 C 13.04 g/m*3 20.1 C 4.8 km/h
742 14-06-2020 13:45:00 20.1 C 13.04 g/m*3 20.1 C 11.3 km/h
743 14-06-2020 13:50:00 20.2 C 13.11 g/m*3 20.2 C 8.1 km/h
744 14-06-2020 13:55:00 20.2 C 13.11 g/m*3 20.2 C 8.1 km/h
745 14-06-2020 14:00:00 20.1 C 12.86 g/m*3 20.1 C 9.7 km/h
746 14-06-2020 14:05:00 20 C 12.96 g/m*3 20 C 11.3 km/h
747 14-06-2020 14:10:00 20 C 12.96 g/m*3 20 C 6.4 km/h
748 14-06-2020 14:15:00 20.1 C 13.04 g/m*3 20.1 C 6.4 km/h
749 14-06-2020 14:20:00 20.1 C 13.21 g/m*3 20.1 C 3.2 km/h
750 14-06-2020 14:25:00 20.2 C 13.29 g/m*3 20.2 C 1.6 km/h
Sensor: Nr:Datum:Temp:Abs-Feuchte:Windchill:Wind:
Aussen-T/F 751 14-06-2020 14:30:00 20.2 C 13.11 g/m*3 20.2 C 6.4 km/h
752 14-06-2020 14:35:00 20.3 C 13.19 g/m*3 20.3 C 4.8 km/h
753 14-06-2020 14:40:00 20.3 C 13.01 g/m*3 20.3 C 6.4 km/h
754 14-06-2020 14:45:00 20.4 C 13.09 g/m*3 20.4 C 1.6 km/h
755 14-06-2020 14:50:00 20.4 C 13.27 g/m*3 20.4 C 1.6 km/h
756 14-06-2020 14:55:00 20.3 C 12.84 g/m*3 20.3 C 3.2 km/h
757 14-06-2020 15:00:00 20.4 C 13.09 g/m*3 20.4 C 1.6 km/h
758 14-06-2020 15:05:00 20.4 C 13.27 g/m*3 20.4 C 0 km/h
759 14-06-2020 15:10:00 20.4 C 12.91 g/m*3 20.4 C 3.2 km/h
760 14-06-2020 15:15:00 20.5 C 12.81 g/m*3 20.5 C 4.8 km/h
761 14-06-2020 15:20:00 20.6 C 13.24 g/m*3 20.6 C 1.6 km/h
762 14-06-2020 15:25:00 20.6 C 13.07 g/m*3 20.6 C 1.6 km/h
763 14-06-2020 15:30:00 20.7 C 13.32 g/m*3 20.7 C 0 km/h
764 14-06-2020 15:35:00 20.7 C 13.14 g/m*3 20.7 C 3.2 km/h
765 14-06-2020 15:40:00 20.7 C 13.32 g/m*3 20.7 C 1.6 km/h
766 14-06-2020 15:45:00 20.8 C 13.4 g/m*3 20.8 C 0 km/h
767 14-06-2020 15:50:00 20.8 C 13.22 g/m*3 20.8 C 0 km/h
768 14-06-2020 15:55:00 20.8 C 13.04 g/m*3 20.8 C 1.6 km/h
769 14-06-2020 16:00:00 20.9 C 13.66 g/m*3 20.9 C 0 km/h
770 14-06-2020 16:05:00 21.1 C 14 g/m*3 21.1 C 0 km/h
771 14-06-2020 16:10:00 21.1 C 13.63 g/m*3 21.1 C 0 km/h
772 14-06-2020 16:15:00 21.2 C 14.27 g/m*3 21.2 C 0 km/h
773 14-06-2020 16:20:00 21.3 C 14.35 g/m*3 21.3 C 0 km/h
774 14-06-2020 16:25:00 21.2 C 14.27 g/m*3 21.2 C 0 km/h
775 14-06-2020 16:30:00 21.2 C 14.08 g/m*3 21.2 C 0 km/h
Sensor: Nr:Datum:Temp:Abs-Feuchte:Windchill:Wind:
Aussen-T/F 776 14-06-2020 16:35:00 21.2 C 14.08 g/m*3 21.2 C 0 km/h
777 14-06-2020 16:40:00 21.2 C 14.27 g/m*3 21.2 C 0 km/h
778 14-06-2020 16:45:00 21.3 C 14.54 g/m*3 21.3 C 0 km/h
779 14-06-2020 16:50:00 21.3 C 13.98 g/m*3 21.3 C 1.6 km/h
780 14-06-2020 16:55:00 21.3 C 13.79 g/m*3 21.3 C 0 km/h
781 14-06-2020 17:00:00 21.3 C 12.86 g/m*3 21.3 C 1.6 km/h
782 14-06-2020 17:05:00 21.2 C 12.6 g/m*3 21.2 C 4.8 km/h
783 14-06-2020 17:10:00 21.2 C 12.42 g/m*3 21.2 C 4.8 km/h
784 14-06-2020 17:15:00 21.3 C 12.49 g/m*3 21.3 C 8.1 km/h
785 14-06-2020 17:20:00 21.3 C 12.49 g/m*3 21.3 C 4.8 km/h
786 14-06-2020 17:25:00 21.3 C 12.68 g/m*3 21.3 C 1.6 km/h
787 14-06-2020 17:30:00 21.4 C 12.37 g/m*3 21.4 C 4.8 km/h
788 14-06-2020 17:35:00 21.4 C 12.75 g/m*3 21.4 C 1.6 km/h
789 14-06-2020 17:40:00 21.6 C 13.09 g/m*3 21.6 C 1.6 km/h
790 14-06-2020 17:45:00 21.4 C 13.31 g/m*3 21.4 C 4.8 km/h
791 14-06-2020 17:50:00 21.3 C 13.42 g/m*3 21.3 C 4.8 km/h
792 14-06-2020 17:55:00 21.3 C 13.42 g/m*3 21.3 C 3.2 km/h
793 14-06-2020 18:00:00 21.1 C 13.08 g/m*3 21.1 C 9.7 km/h
794 14-06-2020 18:05:00 21.1 C 13.45 g/m*3 21.1 C 1.6 km/h
795 14-06-2020 18:10:00 20.9 C 13.48 g/m*3 20.9 C 4.8 km/h
796 14-06-2020 18:15:00 20.8 C 13.4 g/m*3 20.8 C 4.8 km/h
797 14-06-2020 18:20:00 20.7 C 13.5 g/m*3 20.7 C 3.2 km/h
798 14-06-2020 18:25:00 20.6 C 13.6 g/m*3 20.6 C 9.7 km/h
799 14-06-2020 18:30:00 20.4 C 13.44 g/m*3 20.4 C 4.8 km/h
800 14-06-2020 18:35:00 20.3 C 13.54 g/m*3 20.3 C 3.2 km/h
Sensor: Nr:Datum:Temp:Abs-Feuchte:Windchill:Wind:
Aussen-T/F 801 14-06-2020 18:40:00 20.3 C 13.54 g/m*3 20.3 C 3.2 km/h
802 14-06-2020 18:45:00 20.2 C 13.46 g/m*3 20.2 C 6.4 km/h
803 14-06-2020 18:50:00 20.3 C 13.54 g/m*3 20.3 C 4.8 km/h
804 14-06-2020 18:55:00 20.3 C 13.72 g/m*3 20.3 C 3.2 km/h
805 14-06-2020 19:00:00 20.4 C 13.98 g/m*3 20.4 C 8.1 km/h
806 14-06-2020 19:05:00 20.3 C 13.89 g/m*3 20.3 C 3.2 km/h
807 14-06-2020 19:10:00 20.1 C 13.73 g/m*3 20.1 C 8.1 km/h
808 14-06-2020 19:15:00 20 C 13.65 g/m*3 20 C 3.2 km/h
809 14-06-2020 19:20:00 19.9 C 13.74 g/m*3 19.9 C 3.2 km/h
810 14-06-2020 19:25:00 19.8 C 13.49 g/m*3 19.8 C 6.4 km/h
811 14-06-2020 19:30:00 19.7 C 13.58 g/m*3 19.7 C 1.6 km/h
812 14-06-2020 19:35:00 19.7 C 13.41 g/m*3 19.7 C 1.6 km/h
813 14-06-2020 19:40:00 19.7 C 13.58 g/m*3 19.7 C 1.6 km/h
814 14-06-2020 19:45:00 19.6 C 13.67 g/m*3 19.6 C 1.6 km/h
815 14-06-2020 19:50:00 19.5 C 13.59 g/m*3 19.5 C 1.6 km/h
816 14-06-2020 19:55:00 19.4 C 13.35 g/m*3 19.4 C 8.1 km/h
817 14-06-2020 20:00:00 19.4 C 13.01 g/m*3 19.4 C 4.8 km/h
818 14-06-2020 20:05:00 19.3 C 13.1 g/m*3 19.3 C 6.4 km/h
819 14-06-2020 20:10:00 19.2 C 13.19 g/m*3 19.2 C 0 km/h
820 14-06-2020 20:15:00 19.2 C 13.52 g/m*3 19.2 C 3.2 km/h
821 14-06-2020 20:20:00 18.9 C 13.45 g/m*3 18.9 C 6.4 km/h
822 14-06-2020 20:25:00 18.7 C 13.45 g/m*3 18.7 C 6.4 km/h
823 14-06-2020 20:30:00 18.6 C 13.53 g/m*3 18.6 C 6.4 km/h
824 14-06-2020 20:35:00 18.4 C 13.53 g/m*3 18.4 C 8.1 km/h
825 14-06-2020 20:40:00 18.2 C 13.52 g/m*3 18.2 C 8.1 km/h
Sensor: Nr:Datum:Temp:Abs-Feuchte:Windchill:Wind:
Aussen-T/F 826 14-06-2020 20:45:00 18.1 C 13.44 g/m*3 18.1 C 8.1 km/h
827 14-06-2020 20:50:00 18 C 13.52 g/m*3 18 C 4.8 km/h
828 14-06-2020 20:55:00 17.9 C 13.44 g/m*3 17.9 C 8.1 km/h
829 14-06-2020 21:00:00 17.8 C 13.36 g/m*3 17.8 C 4.8 km/h
830 14-06-2020 21:05:00 17.8 C 13.36 g/m*3 17.8 C 8.1 km/h
831 14-06-2020 21:10:00 17.8 C 13.51 g/m*3 17.8 C 4.8 km/h
832 14-06-2020 21:15:00 17.8 C 13.51 g/m*3 17.8 C 3.2 km/h
833 14-06-2020 21:20:00 17.8 C 13.51 g/m*3 17.8 C 1.6 km/h
834 14-06-2020 21:25:00 17.8 C 13.51 g/m*3 17.8 C 1.6 km/h
835 14-06-2020 21:30:00 17.8 C 13.51 g/m*3 17.8 C 1.6 km/h
836 14-06-2020 21:35:00 17.8 C 13.36 g/m*3 17.8 C 3.2 km/h
837 14-06-2020 21:40:00 17.8 C 13.36 g/m*3 17.8 C 4.8 km/h
838 14-06-2020 21:45:00 17.8 C 13.2 g/m*3 17.8 C 6.4 km/h
839 14-06-2020 21:50:00 17.8 C 13.2 g/m*3 17.8 C 0 km/h
840 14-06-2020 21:55:00 17.8 C 13.2 g/m*3 17.8 C 3.2 km/h
841 14-06-2020 22:00:00 17.8 C 13.2 g/m*3 17.8 C 6.4 km/h
842 14-06-2020 22:05:00 17.8 C 13.2 g/m*3 17.8 C 1.6 km/h
843 14-06-2020 22:10:00 17.8 C 13.05 g/m*3 17.8 C 8.1 km/h
844 14-06-2020 22:15:00 17.9 C 13.13 g/m*3 17.9 C 4.8 km/h
845 14-06-2020 22:20:00 18.1 C 13.44 g/m*3 18.1 C 1.6 km/h
846 14-06-2020 22:25:00 18 C 13.36 g/m*3 18 C 1.6 km/h
847 14-06-2020 22:30:00 17.9 C 13.44 g/m*3 17.9 C 0 km/h
848 14-06-2020 22:35:00 17.9 C 13.44 g/m*3 17.9 C 3.2 km/h
849 14-06-2020 22:40:00 17.8 C 13.36 g/m*3 17.8 C 3.2 km/h
850 14-06-2020 22:45:00 17.7 C 13.28 g/m*3 17.7 C 3.2 km/h
Sensor: Nr:Datum:Temp:Abs-Feuchte:Windchill:Wind:
Aussen-T/F 851 14-06-2020 22:50:00 17.6 C 13.35 g/m*3 17.6 C 1.6 km/h
852 14-06-2020 22:55:00 17.6 C 13.35 g/m*3 17.6 C 0 km/h
853 14-06-2020 23:00:00 17.4 C 13.19 g/m*3 17.4 C 0 km/h
854 14-06-2020 23:05:00 17.4 C 13.34 g/m*3 17.4 C 0 km/h
855 14-06-2020 23:10:00 17.3 C 13.26 g/m*3 17.3 C 0 km/h
856 14-06-2020 23:15:00 17.3 C 13.26 g/m*3 17.3 C 0 km/h
857 14-06-2020 23:20:00 17.2 C 13.18 g/m*3 17.2 C 0 km/h
858 14-06-2020 23:25:00 17.2 C 13.18 g/m*3 17.2 C 0 km/h
859 14-06-2020 23:30:00 17.2 C 13.18 g/m*3 17.2 C 3.2 km/h
860 14-06-2020 23:35:00 17.1 C 13.1 g/m*3 17.1 C 4.8 km/h
861 14-06-2020 23:40:00 17.1 C 13.1 g/m*3 17.1 C 1.6 km/h
862 14-06-2020 23:45:00 17.1 C 13.1 g/m*3 17.1 C 1.6 km/h
863 14-06-2020 23:50:00 17.2 C 13.18 g/m*3 17.2 C 3.2 km/h
864 14-06-2020 23:55:00 17.2 C 13.18 g/m*3 17.2 C 1.6 km/h
865 15-06-2020 00:00:00 17.3 C 13.26 g/m*3 17.3 C 6.4 km/h
866 15-06-2020 00:05:00 17.3 C 13.11 g/m*3 17.3 C 1.6 km/h
867 15-06-2020 00:10:00 17.3 C 13.26 g/m*3 17.3 C 3.2 km/h
868 15-06-2020 00:15:00 17.4 C 13.19 g/m*3 17.4 C 3.2 km/h
869 15-06-2020 00:20:00 17.4 C 13.19 g/m*3 17.4 C 6.4 km/h
870 15-06-2020 00:25:00 17.4 C 13.04 g/m*3 17.4 C 6.4 km/h
871 15-06-2020 00:30:00 17.3 C 12.67 g/m*3 17.3 C 11.3 km/h
872 15-06-2020 00:35:00 17.3 C 12.67 g/m*3 17.3 C 11.3 km/h
873 15-06-2020 00:40:00 17.2 C 12.45 g/m*3 17.2 C 4.8 km/h
874 15-06-2020 00:45:00 17.2 C 12.45 g/m*3 17.2 C 1.6 km/h
875 15-06-2020 00:50:00 17.2 C 12.59 g/m*3 17.2 C 6.4 km/h
Sensor: Nr:Datum:Temp:Abs-Feuchte:Windchill:Wind:
Aussen-T/F 876 15-06-2020 00:55:00 17.1 C 12.52 g/m*3 17.1 C 3.2 km/h
877 15-06-2020 01:00:00 17.1 C 12.52 g/m*3 17.1 C 1.6 km/h
878 15-06-2020 01:05:00 17 C 12.44 g/m*3 17 C 1.6 km/h
879 15-06-2020 01:10:00 17 C 12.44 g/m*3 17 C 3.2 km/h
880 15-06-2020 01:15:00 16.9 C 12.51 g/m*3 16.9 C 4.8 km/h
881 15-06-2020 01:20:00 16.9 C 12.51 g/m*3 16.9 C 4.8 km/h
882 15-06-2020 01:25:00 16.9 C 12.51 g/m*3 16.9 C 6.4 km/h
883 15-06-2020 01:30:00 16.8 C 12.44 g/m*3 16.8 C 6.4 km/h
884 15-06-2020 01:35:00 16.8 C 12.44 g/m*3 16.8 C 1.6 km/h
885 15-06-2020 01:40:00 16.8 C 12.44 g/m*3 16.8 C 0 km/h
886 15-06-2020 01:45:00 16.8 C 12.58 g/m*3 16.8 C 0 km/h
887 15-06-2020 01:50:00 16.7 C 12.51 g/m*3 16.7 C 1.6 km/h
888 15-06-2020 01:55:00 16.7 C 12.51 g/m*3 16.7 C 0 km/h
889 15-06-2020 02:00:00 16.7 C 12.51 g/m*3 16.7 C 0 km/h
890 15-06-2020 02:05:00 16.7 C 12.51 g/m*3 16.7 C 3.2 km/h
891 15-06-2020 02:10:00 16.7 C 12.51 g/m*3 16.7 C 4.8 km/h
892 15-06-2020 02:15:00 16.6 C 12.57 g/m*3 16.6 C 1.6 km/h
893 15-06-2020 02:20:00 16.6 C 12.57 g/m*3 16.6 C 0 km/h
894 15-06-2020 02:25:00 16.6 C 12.57 g/m*3 16.6 C 3.2 km/h
895 15-06-2020 02:30:00 16.6 C 12.57 g/m*3 16.6 C 3.2 km/h
896 15-06-2020 02:35:00 16.6 C 12.57 g/m*3 16.6 C 1.6 km/h
897 15-06-2020 02:40:00 16.6 C 12.57 g/m*3 16.6 C 1.6 km/h
898 15-06-2020 02:45:00 16.6 C 12.57 g/m*3 16.6 C 4.8 km/h
899 15-06-2020 02:50:00 16.6 C 12.57 g/m*3 16.6 C 1.6 km/h
900 15-06-2020 02:55:00 16.6 C 12.57 g/m*3 16.6 C 0 km/h
Sensor: Nr:Datum:Temp:Abs-Feuchte:Windchill:Wind:
Aussen-T/F 901 15-06-2020 03:00:00 16.6 C 12.57 g/m*3 16.6 C 1.6 km/h
902 15-06-2020 03:05:00 16.6 C 12.57 g/m*3 16.6 C 3.2 km/h
903 15-06-2020 03:10:00 16.6 C 12.57 g/m*3 16.6 C 3.2 km/h
904 15-06-2020 03:15:00 16.6 C 12.57 g/m*3 16.6 C 0 km/h
905 15-06-2020 03:20:00 16.5 C 12.5 g/m*3 16.5 C 1.6 km/h
906 15-06-2020 03:25:00 16.5 C 12.5 g/m*3 16.5 C 3.2 km/h
907 15-06-2020 03:30:00 16.5 C 12.5 g/m*3 16.5 C 3.2 km/h
908 15-06-2020 03:35:00 16.6 C 12.57 g/m*3 16.6 C 1.6 km/h
909 15-06-2020 03:40:00 16.6 C 12.57 g/m*3 16.6 C 1.6 km/h
910 15-06-2020 03:45:00 16.6 C 12.57 g/m*3 16.6 C 0 km/h
911 15-06-2020 03:50:00 16.6 C 12.57 g/m*3 16.6 C 0 km/h
912 15-06-2020 03:55:00 16.6 C 12.57 g/m*3 16.6 C 0 km/h
913 15-06-2020 04:00:00 16.6 C 12.57 g/m*3 16.6 C 0 km/h
914 15-06-2020 04:05:00 16.6 C 12.57 g/m*3 16.6 C 1.6 km/h
915 15-06-2020 04:10:00 16.6 C 12.57 g/m*3 16.6 C 1.6 km/h
916 15-06-2020 04:15:00 16.6 C 12.71 g/m*3 16.6 C 4.8 km/h
917 15-06-2020 04:20:00 16.6 C 12.71 g/m*3 16.6 C 4.8 km/h
918 15-06-2020 04:25:00 16.6 C 12.71 g/m*3 16.6 C 4.8 km/h
919 15-06-2020 04:30:00 16.6 C 12.71 g/m*3 16.6 C 6.4 km/h
920 15-06-2020 04:35:00 16.7 C 12.79 g/m*3 16.7 C 8.1 km/h
921 15-06-2020 04:40:00 16.7 C 12.65 g/m*3 16.7 C 4.8 km/h
922 15-06-2020 04:45:00 16.7 C 12.65 g/m*3 16.7 C 6.4 km/h
923 15-06-2020 04:50:00 16.7 C 12.65 g/m*3 16.7 C 4.8 km/h
924 15-06-2020 04:55:00 16.7 C 12.65 g/m*3 16.7 C 4.8 km/h
925 15-06-2020 05:00:00 16.7 C 12.65 g/m*3 16.7 C 1.6 km/h
Sensor: Nr:Datum:Temp:Abs-Feuchte:Windchill:Wind:
Aussen-T/F 926 15-06-2020 05:05:00 16.6 C 12.71 g/m*3 16.6 C 0 km/h
927 15-06-2020 05:10:00 16.6 C 12.71 g/m*3 16.6 C 1.6 km/h
928 15-06-2020 05:15:00 16.6 C 12.71 g/m*3 16.6 C 1.6 km/h
929 15-06-2020 05:20:00 16.6 C 12.71 g/m*3 16.6 C 4.8 km/h
930 15-06-2020 05:25:00 16.5 C 12.64 g/m*3 16.5 C 1.6 km/h
931 15-06-2020 05:30:00 16.5 C 12.64 g/m*3 16.5 C 8.1 km/h
932 15-06-2020 05:35:00 16.5 C 12.64 g/m*3 16.5 C 1.6 km/h
933 15-06-2020 05:40:00 16.4 C 12.56 g/m*3 16.4 C 4.8 km/h
934 15-06-2020 05:45:00 16.5 C 12.64 g/m*3 16.5 C 4.8 km/h
935 15-06-2020 05:50:00 16.5 C 12.64 g/m*3 16.5 C 1.6 km/h
936 15-06-2020 05:55:00 16.5 C 12.64 g/m*3 16.5 C 1.6 km/h
937 15-06-2020 06:00:00 16.5 C 12.64 g/m*3 16.5 C 4.8 km/h
938 15-06-2020 06:05:00 16.6 C 12.71 g/m*3 16.6 C 4.8 km/h
939 15-06-2020 06:10:00 16.6 C 12.71 g/m*3 16.6 C 1.6 km/h
940 15-06-2020 06:15:00 16.6 C 12.71 g/m*3 16.6 C 0 km/h
941 15-06-2020 06:20:00 16.6 C 12.71 g/m*3 16.6 C 0 km/h
942 15-06-2020 06:25:00 16.6 C 12.71 g/m*3 16.6 C 3.2 km/h
943 15-06-2020 06:30:00 16.6 C 12.71 g/m*3 16.6 C 1.6 km/h
944 15-06-2020 06:35:00 16.6 C 12.71 g/m*3 16.6 C 1.6 km/h
945 15-06-2020 06:40:00 16.6 C 12.71 g/m*3 16.6 C 0 km/h
946 15-06-2020 06:45:00 16.6 C 12.71 g/m*3 16.6 C 0 km/h
947 15-06-2020 06:50:00 16.6 C 12.71 g/m*3 16.6 C 1.6 km/h
948 15-06-2020 06:55:00 16.7 C 12.79 g/m*3 16.7 C 0 km/h
949 15-06-2020 07:00:00 16.7 C 12.79 g/m*3 16.7 C 1.6 km/h
950 15-06-2020 07:05:00 16.7 C 12.79 g/m*3 16.7 C 0 km/h
Sensor: Nr:Datum:Temp:Abs-Feuchte:Windchill:Wind:
Aussen-T/F 951 15-06-2020 07:10:00 16.7 C 12.79 g/m*3 16.7 C 0 km/h
952 15-06-2020 07:15:00 16.7 C 12.79 g/m*3 16.7 C 0 km/h
953 15-06-2020 07:20:00 16.7 C 12.79 g/m*3 16.7 C 1.6 km/h
954 15-06-2020 07:25:00 16.7 C 12.79 g/m*3 16.7 C 0 km/h
955 15-06-2020 07:30:00 16.8 C 12.87 g/m*3 16.8 C 0 km/h
956 15-06-2020 07:35:00 16.8 C 12.87 g/m*3 16.8 C 4.8 km/h
957 15-06-2020 07:40:00 16.9 C 12.94 g/m*3 16.9 C 4.8 km/h
958 15-06-2020 07:45:00 16.9 C 12.94 g/m*3 16.9 C 1.6 km/h
959 15-06-2020 07:50:00 17 C 13.02 g/m*3 17 C 0 km/h
960 15-06-2020 07:55:00 17.1 C 13.1 g/m*3 17.1 C 0 km/h
961 15-06-2020 08:00:00 17.1 C 12.96 g/m*3 17.1 C 6.4 km/h
962 15-06-2020 08:05:00 17.2 C 13.03 g/m*3 17.2 C 3.2 km/h
963 15-06-2020 08:10:00 17.2 C 13.03 g/m*3 17.2 C 0 km/h
964 15-06-2020 08:15:00 17.3 C 13.11 g/m*3 17.3 C 4.8 km/h
965 15-06-2020 08:20:00 17.4 C 13.19 g/m*3 17.4 C 1.6 km/h
966 15-06-2020 08:25:00 17.4 C 13.04 g/m*3 17.4 C 3.2 km/h
967 15-06-2020 08:30:00 17.6 C 13.2 g/m*3 17.6 C 1.6 km/h
968 15-06-2020 08:35:00 17.7 C 13.13 g/m*3 17.7 C 3.2 km/h
969 15-06-2020 08:40:00 17.8 C 13.36 g/m*3 17.8 C 1.6 km/h
970 15-06-2020 08:45:00 17.9 C 13.28 g/m*3 17.9 C 6.4 km/h
971 15-06-2020 08:50:00 17.9 C 13.28 g/m*3 17.9 C 6.4 km/h
972 15-06-2020 08:55:00 18 C 13.21 g/m*3 18 C 4.8 km/h
973 15-06-2020 09:00:00 18.1 C 13.29 g/m*3 18.1 C 3.2 km/h
974 15-06-2020 09:05:00 18.1 C 13.13 g/m*3 18.1 C 6.4 km/h
975 15-06-2020 09:10:00 18.1 C 13.13 g/m*3 18.1 C 4.8 km/h
Sensor: Nr:Datum:Temp:Abs-Feuchte:Windchill:Wind:
Aussen-T/F 976 15-06-2020 09:15:00 18.2 C 13.21 g/m*3 18.2 C 3.2 km/h
977 15-06-2020 09:20:00 18.2 C 13.21 g/m*3 18.2 C 1.6 km/h
978 15-06-2020 09:25:00 18.3 C 13.45 g/m*3 18.3 C 3.2 km/h
979 15-06-2020 09:30:00 18.3 C 13.29 g/m*3 18.3 C 4.8 km/h
980 15-06-2020 09:35:00 18.3 C 13.45 g/m*3 18.3 C 6.4 km/h
981 15-06-2020 09:40:00 18.4 C 13.37 g/m*3 18.4 C 9.7 km/h
982 15-06-2020 09:45:00 18.5 C 13.45 g/m*3 18.5 C 6.4 km/h
983 15-06-2020 09:50:00 18.6 C 13.53 g/m*3 18.6 C 9.7 km/h
984 15-06-2020 09:55:00 18.8 C 13.53 g/m*3 18.8 C 4.8 km/h
985 15-06-2020 10:00:00 18.9 C 13.61 g/m*3 18.9 C 6.4 km/h
986 15-06-2020 10:05:00 19.1 C 13.77 g/m*3 19.1 C 6.4 km/h
987 15-06-2020 10:10:00 19.2 C 13.69 g/m*3 19.2 C 9.7 km/h
988 15-06-2020 10:15:00 19.2 C 13.69 g/m*3 19.2 C 8.1 km/h
989 15-06-2020 10:20:00 19.4 C 13.85 g/m*3 19.4 C 3.2 km/h
990 15-06-2020 10:25:00 19.5 C 13.76 g/m*3 19.5 C 9.7 km/h
991 15-06-2020 10:30:00 19.5 C 13.59 g/m*3 19.5 C 6.4 km/h
992 15-06-2020 10:35:00 19.5 C 13.59 g/m*3 19.5 C 3.2 km/h
993 15-06-2020 10:40:00 19.6 C 13.67 g/m*3 19.6 C 6.4 km/h
994 15-06-2020 10:45:00 19.6 C 13.84 g/m*3 19.6 C 4.8 km/h
995 15-06-2020 10:50:00 19.7 C 13.75 g/m*3 19.7 C 8.1 km/h
996 15-06-2020 10:55:00 19.7 C 13.58 g/m*3 19.7 C 6.4 km/h
997 15-06-2020 11:00:00 19.6 C 13.67 g/m*3 19.6 C 6.4 km/h
998 15-06-2020 11:05:00 19.7 C 13.58 g/m*3 19.7 C 8.1 km/h
999 15-06-2020 11:10:00 19.8 C 13.66 g/m*3 19.8 C 4.8 km/h
1000 15-06-2020 11:15:00 20 C 14 g/m*3 20 C 3.2 km/h
Sensor: Nr:Datum:Temp:Abs-Feuchte:Windchill:Wind:
Aussen-T/F 1001 15-06-2020 11:20:00 20.2 C 13.81 g/m*3 20.2 C 4.8 km/h
1002 15-06-2020 11:25:00 20.2 C 13.81 g/m*3 20.2 C 6.4 km/h
1003 15-06-2020 11:30:00 20.2 C 13.46 g/m*3 20.2 C 8.1 km/h
1004 15-06-2020 11:35:00 20.2 C 13.46 g/m*3 20.2 C 6.4 km/h
1005 15-06-2020 11:40:00 20.3 C 13.72 g/m*3 20.3 C 4.8 km/h
1006 15-06-2020 11:45:00 20.3 C 13.54 g/m*3 20.3 C 3.2 km/h
1007 15-06-2020 11:50:00 20.4 C 13.44 g/m*3 20.4 C 4.8 km/h
1008 15-06-2020 11:55:00 20.5 C 13.17 g/m*3 20.5 C 4.8 km/h
1009 15-06-2020 12:00:00 20.6 C 12.89 g/m*3 20.6 C 6.4 km/h
1010 15-06-2020 12:05:00 20.6 C 12.53 g/m*3 20.6 C 8.1 km/h
1011 15-06-2020 12:10:00 20.7 C 12.6 g/m*3 20.7 C 9.7 km/h
1012 15-06-2020 12:15:00 20.6 C 12.53 g/m*3 20.6 C 8.1 km/h
1013 15-06-2020 12:20:00 20.6 C 12.71 g/m*3 20.6 C 3.2 km/h
1014 15-06-2020 12:25:00 20.6 C 12.71 g/m*3 20.6 C 4.8 km/h
1015 15-06-2020 12:30:00 20.6 C 12.71 g/m*3 20.6 C 6.4 km/h
1016 15-06-2020 12:35:00 20.6 C 12.53 g/m*3 20.6 C 4.8 km/h
1017 15-06-2020 12:40:00 20.5 C 12.46 g/m*3 20.5 C 8.1 km/h
1018 15-06-2020 12:45:00 20.5 C 12.46 g/m*3 20.5 C 8.1 km/h
1019 15-06-2020 12:50:00 20.5 C 12.28 g/m*3 20.5 C 4.8 km/h
1020 15-06-2020 12:55:00 20.5 C 11.92 g/m*3 20.5 C 6.4 km/h
1021 15-06-2020 13:00:00 20.4 C 12.03 g/m*3 20.4 C 4.8 km/h
1022 15-06-2020 13:05:00 20.4 C 12.21 g/m*3 20.4 C 4.8 km/h
1023 15-06-2020 13:10:00 20.5 C 12.1 g/m*3 20.5 C 8.1 km/h
1024 15-06-2020 13:15:00 20.5 C 12.1 g/m*3 20.5 C 6.4 km/h
1025 15-06-2020 13:20:00 20.5 C 11.92 g/m*3 20.5 C 8.1 km/h
Sensor: Nr:Datum:Temp:Abs-Feuchte:Windchill:Wind:
Aussen-T/F 1026 15-06-2020 13:25:00 20.5 C 12.1 g/m*3 20.5 C 3.2 km/h
1027 15-06-2020 13:30:00 20.5 C 11.92 g/m*3 20.5 C 11.3 km/h
1028 15-06-2020 13:35:00 20.4 C 12.03 g/m*3 20.4 C 8.1 km/h
1029 15-06-2020 13:40:00 20.4 C 12.03 g/m*3 20.4 C 3.2 km/h
1030 15-06-2020 13:45:00 20.4 C 11.85 g/m*3 20.4 C 6.4 km/h
1031 15-06-2020 13:50:00 20.4 C 12.03 g/m*3 20.4 C 3.2 km/h
1032 15-06-2020 13:55:00 20.4 C 12.03 g/m*3 20.4 C 8.1 km/h
1033 15-06-2020 14:00:00 20.4 C 12.03 g/m*3 20.4 C 4.8 km/h
1034 15-06-2020 14:05:00 20.5 C 12.1 g/m*3 20.5 C 0 km/h
1035 15-06-2020 14:10:00 20.5 C 11.92 g/m*3 20.5 C 8.1 km/h
1036 15-06-2020 14:15:00 20.6 C 12.71 g/m*3 20.6 C 3.2 km/h
1037 15-06-2020 14:20:00 20.5 C 12.1 g/m*3 20.5 C 4.8 km/h
1038 15-06-2020 14:25:00 20.5 C 12.46 g/m*3 20.5 C 4.8 km/h
1039 15-06-2020 14:30:00 20.5 C 12.28 g/m*3 20.5 C 4.8 km/h
1040 15-06-2020 14:35:00 20.5 C 12.28 g/m*3 20.5 C 6.4 km/h
1041 15-06-2020 14:40:00 20.5 C 12.1 g/m*3 20.5 C 0 km/h
1042 15-06-2020 14:45:00 20.6 C 12.53 g/m*3 20.6 C 0 km/h
1043 15-06-2020 14:50:00 20.5 C 12.28 g/m*3 20.5 C 0 km/h
1044 15-06-2020 14:55:00 20.6 C 12.35 g/m*3 20.6 C 0 km/h
1045 15-06-2020 15:00:00 20.6 C 12.35 g/m*3 20.6 C 0 km/h
1046 15-06-2020 15:05:00 20.6 C 12.53 g/m*3 20.6 C 0 km/h
1047 15-06-2020 15:10:00 20.6 C 13.07 g/m*3 20.6 C 0 km/h
1048 15-06-2020 15:15:00 20.6 C 12.89 g/m*3 20.6 C 0 km/h
1049 15-06-2020 15:20:00 20.4 C 12.91 g/m*3 20.4 C 0 km/h
1050 15-06-2020 15:25:00 20.4 C 13.44 g/m*3 20.4 C 0 km/h
Sensor: Nr:Datum:Temp:Abs-Feuchte:Windchill:Wind:
Aussen-T/F 1051 15-06-2020 15:30:00 20.5 C 13.7 g/m*3 20.5 C 0 km/h
1052 15-06-2020 15:35:00 20.6 C 13.96 g/m*3 20.6 C 0 km/h
1053 15-06-2020 15:40:00 20.5 C 13.17 g/m*3 20.5 C 0 km/h
1054 15-06-2020 15:45:00 20.6 C 13.24 g/m*3 20.6 C 0 km/h
1055 15-06-2020 15:50:00 20.6 C 12.89 g/m*3 20.6 C 0 km/h
1056 15-06-2020 15:55:00 20.7 C 12.78 g/m*3 20.7 C 0 km/h
1057 15-06-2020 16:00:00 20.8 C 12.86 g/m*3 20.8 C 0 km/h
1058 15-06-2020 16:05:00 20.8 C 13.04 g/m*3 20.8 C 0 km/h
1059 15-06-2020 16:10:00 21 C 13.01 g/m*3 21 C 0 km/h
1060 15-06-2020 16:15:00 21.1 C 13.27 g/m*3 21.1 C 0 km/h
1061 15-06-2020 16:20:00 21.1 C 12.71 g/m*3 21.1 C 0 km/h
1062 15-06-2020 16:25:00 21.1 C 12.71 g/m*3 21.1 C 0 km/h
1063 15-06-2020 17:35:00 21.1 C 12.16 g/m*3 21.1 C 4.8 km/h
1064 15-06-2020 17:40:00 21.1 C 12.16 g/m*3 21.1 C 3.2 km/h
1065 15-06-2020 17:45:00 21.1 C 12.34 g/m*3 21.1 C 1.6 km/h
1066 15-06-2020 17:50:00 21.1 C 12.16 g/m*3 21.1 C 4.8 km/h
1067 15-06-2020 17:55:00 21.1 C 12.34 g/m*3 21.1 C 0 km/h
1068 15-06-2020 18:00:00 21.2 C 12.42 g/m*3 21.2 C 0 km/h
1069 15-06-2020 18:05:00 21.2 C 12.23 g/m*3 21.2 C 0 km/h
1070 15-06-2020 18:10:00 21.3 C 12.49 g/m*3 21.3 C 0 km/h
1071 15-06-2020 18:15:00 21.3 C 12.3 g/m*3 21.3 C 0 km/h
1072 15-06-2020 18:20:00 21.3 C 12.49 g/m*3 21.3 C 0 km/h
1073 15-06-2020 18:25:00 21.3 C 12.49 g/m*3 21.3 C 0 km/h
1074 15-06-2020 18:30:00 21.4 C 12.37 g/m*3 21.4 C 0 km/h
1075 15-06-2020 18:35:00 21.3 C 12.12 g/m*3 21.3 C 4.8 km/h
Sensor: Nr:Datum:Temp:Abs-Feuchte:Windchill:Wind:
Aussen-T/F 1076 15-06-2020 18:40:00 21.3 C 12.3 g/m*3 21.3 C 1.6 km/h
1077 15-06-2020 18:45:00 21.3 C 11.93 g/m*3 21.3 C 3.2 km/h
1078 15-06-2020 18:50:00 21.3 C 12.12 g/m*3 21.3 C 0 km/h
1079 15-06-2020 18:55:00 21.3 C 12.49 g/m*3 21.3 C 0 km/h
1080 15-06-2020 19:00:00 21.4 C 12.56 g/m*3 21.4 C 0 km/h
1081 15-06-2020 19:05:00 21.4 C 13.12 g/m*3 21.4 C 0 km/h
1082 15-06-2020 19:10:00 21.5 C 13.39 g/m*3 21.5 C 0 km/h
1083 15-06-2020 19:15:00 21.6 C 13.09 g/m*3 21.6 C 0 km/h
1084 15-06-2020 19:20:00 21.6 C 13.28 g/m*3 21.6 C 0 km/h
1085 15-06-2020 19:25:00 21.6 C 13.47 g/m*3 21.6 C 0 km/h
1086 15-06-2020 19:30:00 21.6 C 13.66 g/m*3 21.6 C 0 km/h
1087 15-06-2020 19:35:00 21.5 C 13.58 g/m*3 21.5 C 0 km/h
1088 15-06-2020 19:40:00 21.3 C 13.42 g/m*3 21.3 C 0 km/h
1089 15-06-2020 19:45:00 21.1 C 13.45 g/m*3 21.1 C 0 km/h
1090 15-06-2020 19:50:00 20.8 C 13.22 g/m*3 20.8 C 3.2 km/h
1091 15-06-2020 19:55:00 20.5 C 12.99 g/m*3 20.5 C 3.2 km/h
1092 15-06-2020 20:00:00 20.3 C 12.84 g/m*3 20.3 C 4.8 km/h
1093 15-06-2020 20:05:00 20.1 C 12.69 g/m*3 20.1 C 3.2 km/h
1094 15-06-2020 20:10:00 19.9 C 12.71 g/m*3 19.9 C 0 km/h
1095 15-06-2020 20:15:00 19.8 C 12.64 g/m*3 19.8 C 3.2 km/h
1096 15-06-2020 20:20:00 19.7 C 12.91 g/m*3 19.7 C 3.2 km/h
1097 15-06-2020 20:25:00 19.6 C 13 g/m*3 19.6 C 0 km/h
1098 15-06-2020 20:30:00 19.5 C 12.92 g/m*3 19.5 C 3.2 km/h
1099 15-06-2020 20:35:00 19.4 C 12.68 g/m*3 19.4 C 3.2 km/h
1100 15-06-2020 20:40:00 19.3 C 12.77 g/m*3 19.3 C 0 km/h
Sensor: Nr:Datum:Temp:Abs-Feuchte:Windchill:Wind:
Aussen-T/F 1101 15-06-2020 20:45:00 19.2 C 12.7 g/m*3 19.2 C 4.8 km/h
1102 15-06-2020 20:50:00 19.1 C 12.62 g/m*3 19.1 C 4.8 km/h
1103 15-06-2020 20:55:00 19.1 C 12.46 g/m*3 19.1 C 4.8 km/h
1104 15-06-2020 21:00:00 18.9 C 12.31 g/m*3 18.9 C 4.8 km/h
1105 15-06-2020 21:05:00 18.9 C 12.47 g/m*3 18.9 C 4.8 km/h
1106 15-06-2020 21:10:00 18.8 C 12.4 g/m*3 18.8 C 6.4 km/h
1107 15-06-2020 21:15:00 18.8 C 12.4 g/m*3 18.8 C 4.8 km/h
1108 15-06-2020 21:20:00 18.7 C 12.33 g/m*3 18.7 C 4.8 km/h
1109 15-06-2020 21:25:00 18.7 C 12.49 g/m*3 18.7 C 4.8 km/h
1110 15-06-2020 21:30:00 18.6 C 12.57 g/m*3 18.6 C 4.8 km/h
1111 15-06-2020 21:35:00 18.5 C 12.5 g/m*3 18.5 C 4.8 km/h
1112 15-06-2020 21:40:00 18.4 C 12.58 g/m*3 18.4 C 3.2 km/h
1113 15-06-2020 21:45:00 18.4 C 12.58 g/m*3 18.4 C 0 km/h
1114 15-06-2020 21:50:00 18.3 C 12.51 g/m*3 18.3 C 3.2 km/h
1115 15-06-2020 21:55:00 18.2 C 12.43 g/m*3 18.2 C 3.2 km/h
1116 15-06-2020 22:00:00 18.1 C 12.36 g/m*3 18.1 C 3.2 km/h
1117 15-06-2020 22:05:00 18 C 12.44 g/m*3 18 C 0 km/h
1118 15-06-2020 22:10:00 17.9 C 12.37 g/m*3 17.9 C 0 km/h
1119 15-06-2020 22:15:00 17.8 C 12.45 g/m*3 17.8 C 0 km/h
1120 15-06-2020 22:20:00 17.7 C 12.37 g/m*3 17.7 C 0 km/h
1121 15-06-2020 22:25:00 17.6 C 12.3 g/m*3 17.6 C 0 km/h
1122 15-06-2020 22:30:00 17.6 C 12.3 g/m*3 17.6 C 0 km/h
1123 15-06-2020 22:35:00 17.5 C 12.23 g/m*3 17.5 C 0 km/h
1124 15-06-2020 22:40:00 17.4 C 12.3 g/m*3 17.4 C 0 km/h
1125 15-06-2020 22:45:00 17.4 C 12.3 g/m*3 17.4 C 0 km/h
Sensor: Nr:Datum:Temp:Abs-Feuchte:Windchill:Wind:
Aussen-T/F 1126 15-06-2020 22:50:00 17.4 C 12.3 g/m*3 17.4 C 0 km/h
1127 15-06-2020 22:55:00 17.3 C 12.37 g/m*3 17.3 C 0 km/h
1128 15-06-2020 23:00:00 17.3 C 12.37 g/m*3 17.3 C 0 km/h
1129 15-06-2020 23:05:00 17.3 C 12.37 g/m*3 17.3 C 0 km/h
1130 15-06-2020 23:10:00 17.2 C 12.3 g/m*3 17.2 C 0 km/h
1131 15-06-2020 23:15:00 17.2 C 12.3 g/m*3 17.2 C 0 km/h
1132 15-06-2020 23:20:00 17.2 C 12.3 g/m*3 17.2 C 0 km/h
1133 15-06-2020 23:25:00 17.2 C 12.3 g/m*3 17.2 C 0 km/h
1134 15-06-2020 23:30:00 17.1 C 12.23 g/m*3 17.1 C 0 km/h
1135 15-06-2020 23:35:00 17.1 C 12.37 g/m*3 17.1 C 0 km/h
1136 15-06-2020 23:40:00 17.1 C 12.37 g/m*3 17.1 C 0 km/h
1137 15-06-2020 23:45:00 17.1 C 12.37 g/m*3 17.1 C 0 km/h
1138 15-06-2020 23:50:00 17.1 C 12.37 g/m*3 17.1 C 0 km/h
1139 15-06-2020 23:55:00 17.1 C 12.37 g/m*3 17.1 C 0 km/h
1140 16-06-2020 00:00:00 17.1 C 12.52 g/m*3 17.1 C 0 km/h
1141 16-06-2020 00:05:00 17.1 C 12.52 g/m*3 17.1 C 0 km/h
1142 16-06-2020 00:10:00 17.1 C 12.37 g/m*3 17.1 C 0 km/h
1143 16-06-2020 00:15:00 17.1 C 12.52 g/m*3 17.1 C 0 km/h
1144 16-06-2020 00:20:00 17 C 12.3 g/m*3 17 C 0 km/h
1145 16-06-2020 00:25:00 17.1 C 12.37 g/m*3 17.1 C 0 km/h
1146 16-06-2020 00:30:00 17.1 C 12.52 g/m*3 17.1 C 0 km/h
1147 16-06-2020 00:35:00 17.1 C 12.52 g/m*3 17.1 C 0 km/h
1148 16-06-2020 00:40:00 17.2 C 12.89 g/m*3 17.2 C 0 km/h
1149 16-06-2020 00:45:00 17.2 C 12.89 g/m*3 17.2 C 0 km/h
1150 16-06-2020 00:50:00 17.2 C 12.89 g/m*3 17.2 C 0 km/h
Sensor: Nr:Datum:Temp:Abs-Feuchte:Windchill:Wind:
Aussen-T/F 1151 16-06-2020 00:55:00 17.1 C 12.96 g/m*3 17.1 C 0 km/h
1152 16-06-2020 01:00:00 17.1 C 13.1 g/m*3 17.1 C 0 km/h
1153 16-06-2020 01:05:00 17.1 C 13.1 g/m*3 17.1 C 0 km/h
1154 16-06-2020 01:10:00 17 C 13.02 g/m*3 17 C 0 km/h
1155 16-06-2020 01:15:00 16.9 C 12.94 g/m*3 16.9 C 0 km/h
1156 16-06-2020 01:20:00 16.9 C 12.94 g/m*3 16.9 C 0 km/h
1157 16-06-2020 01:25:00 16.8 C 12.87 g/m*3 16.8 C 0 km/h
1158 16-06-2020 01:30:00 16.8 C 13.01 g/m*3 16.8 C 0 km/h
1159 16-06-2020 01:35:00 16.8 C 13.01 g/m*3 16.8 C 0 km/h
1160 16-06-2020 01:40:00 16.8 C 13.15 g/m*3 16.8 C 0 km/h
1161 16-06-2020 01:45:00 16.8 C 13.15 g/m*3 16.8 C 0 km/h
1162 16-06-2020 01:50:00 16.8 C 13.15 g/m*3 16.8 C 0 km/h
1163 16-06-2020 01:55:00 16.7 C 13.07 g/m*3 16.7 C 0 km/h
1164 16-06-2020 02:00:00 16.7 C 13.07 g/m*3 16.7 C 0 km/h
1165 16-06-2020 02:05:00 16.7 C 13.22 g/m*3 16.7 C 0 km/h
1166 16-06-2020 02:10:00 16.6 C 13.14 g/m*3 16.6 C 0 km/h
1167 16-06-2020 02:15:00 16.6 C 13.14 g/m*3 16.6 C 0 km/h
1168 16-06-2020 02:20:00 16.5 C 13.06 g/m*3 16.5 C 0 km/h
1169 16-06-2020 02:25:00 16.4 C 12.98 g/m*3 16.4 C 0 km/h
1170 16-06-2020 02:30:00 16.4 C 12.98 g/m*3 16.4 C 0 km/h
1171 16-06-2020 02:35:00 16.4 C 12.98 g/m*3 16.4 C 0 km/h
1172 16-06-2020 02:40:00 16.4 C 12.98 g/m*3 16.4 C 0 km/h
1173 16-06-2020 02:45:00 16.3 C 12.9 g/m*3 16.3 C 0 km/h
1174 16-06-2020 02:50:00 16.3 C 12.9 g/m*3 16.3 C 0 km/h
1175 16-06-2020 02:55:00 16.2 C 12.82 g/m*3 16.2 C 0 km/h
Sensor: Nr:Datum:Temp:Abs-Feuchte:Windchill:Wind:
Aussen-T/F 1176 16-06-2020 03:00:00 16.3 C 13.04 g/m*3 16.3 C 0 km/h
1177 16-06-2020 03:05:00 16.2 C 12.96 g/m*3 16.2 C 0 km/h
1178 16-06-2020 03:10:00 16.2 C 12.96 g/m*3 16.2 C 0 km/h
1179 16-06-2020 03:15:00 16.2 C 12.96 g/m*3 16.2 C 0 km/h
1180 16-06-2020 03:20:00 16.2 C 12.96 g/m*3 16.2 C 0 km/h
1181 16-06-2020 03:25:00 16.2 C 12.96 g/m*3 16.2 C 0 km/h
1182 16-06-2020 03:30:00 16.2 C 12.96 g/m*3 16.2 C 0 km/h
1183 16-06-2020 03:35:00 16.2 C 12.96 g/m*3 16.2 C 0 km/h
1184 16-06-2020 03:40:00 16.2 C 12.96 g/m*3 16.2 C 0 km/h
1185 16-06-2020 03:45:00 16.2 C 12.96 g/m*3 16.2 C 0 km/h
1186 16-06-2020 03:50:00 16.2 C 12.96 g/m*3 16.2 C 0 km/h
1187 16-06-2020 03:55:00 16.1 C 13.02 g/m*3 16.1 C 0 km/h
1188 16-06-2020 04:00:00 16.1 C 13.02 g/m*3 16.1 C 0 km/h
1189 16-06-2020 04:05:00 16.1 C 13.02 g/m*3 16.1 C 0 km/h
1190 16-06-2020 04:10:00 16.1 C 13.02 g/m*3 16.1 C 0 km/h
1191 16-06-2020 04:15:00 16.1 C 13.02 g/m*3 16.1 C 0 km/h
1192 16-06-2020 04:20:00 16.1 C 13.02 g/m*3 16.1 C 0 km/h
1193 16-06-2020 04:25:00 16.1 C 13.02 g/m*3 16.1 C 0 km/h
1194 16-06-2020 04:30:00 16.1 C 13.02 g/m*3 16.1 C 0 km/h
1195 16-06-2020 04:35:00 16.1 C 13.02 g/m*3 16.1 C 0 km/h
1196 16-06-2020 04:40:00 16.1 C 13.02 g/m*3 16.1 C 0 km/h
1197 16-06-2020 04:45:00 16.1 C 13.02 g/m*3 16.1 C 0 km/h
1198 16-06-2020 04:50:00 16.2 C 13.1 g/m*3 16.2 C 0 km/h
1199 16-06-2020 04:55:00 16.2 C 13.1 g/m*3 16.2 C 0 km/h
1200 16-06-2020 05:00:00 16.2 C 13.1 g/m*3 16.2 C 0 km/h
Sensor: Nr:Datum:Temp:Abs-Feuchte:Windchill:Wind:
Aussen-T/F 1201 16-06-2020 05:05:00 16.2 C 13.1 g/m*3 16.2 C 0 km/h
1202 16-06-2020 05:10:00 16.1 C 13.02 g/m*3 16.1 C 0 km/h
1203 16-06-2020 05:15:00 16.1 C 13.02 g/m*3 16.1 C 0 km/h
1204 16-06-2020 05:20:00 16.1 C 13.02 g/m*3 16.1 C 0 km/h
1205 16-06-2020 05:25:00 16.1 C 13.02 g/m*3 16.1 C 0 km/h
1206 16-06-2020 05:30:00 16 C 12.94 g/m*3 16 C 0 km/h
1207 16-06-2020 05:35:00 16 C 12.94 g/m*3 16 C 1.6 km/h
1208 16-06-2020 05:40:00 16 C 12.94 g/m*3 16 C 1.6 km/h
1209 16-06-2020 05:45:00 16 C 12.94 g/m*3 16 C 0 km/h
1210 16-06-2020 05:50:00 16 C 12.94 g/m*3 16 C 0 km/h
1211 16-06-2020 05:55:00 15.9 C 12.87 g/m*3 15.9 C 0 km/h
1212 16-06-2020 06:00:00 15.9 C 12.87 g/m*3 15.9 C 0 km/h
1213 16-06-2020 06:05:00 15.9 C 12.87 g/m*3 15.9 C 1.6 km/h
1214 16-06-2020 06:10:00 15.9 C 12.87 g/m*3 15.9 C 1.6 km/h
1215 16-06-2020 06:15:00 15.9 C 12.87 g/m*3 15.9 C 0 km/h
1216 16-06-2020 06:20:00 15.9 C 12.87 g/m*3 15.9 C 0 km/h
1217 16-06-2020 06:25:00 15.9 C 13 g/m*3 15.9 C 0 km/h
1218 16-06-2020 06:30:00 15.9 C 13 g/m*3 15.9 C 0 km/h
1219 16-06-2020 06:35:00 16 C 13.08 g/m*3 16 C 0 km/h
1220 16-06-2020 06:40:00 16 C 13.08 g/m*3 16 C 1.6 km/h
1221 16-06-2020 06:45:00 16 C 13.08 g/m*3 16 C 0 km/h
1222 16-06-2020 06:50:00 16 C 13.08 g/m*3 16 C 0 km/h
1223 16-06-2020 06:55:00 16 C 13.08 g/m*3 16 C 0 km/h
1224 16-06-2020 07:00:00 16 C 13.08 g/m*3 16 C 0 km/h
1225 16-06-2020 07:05:00 16 C 13.08 g/m*3 16 C 0 km/h
Sensor: Nr:Datum:Temp:Abs-Feuchte:Windchill:Wind:
Aussen-T/F 1226 16-06-2020 07:10:00 16 C 13.08 g/m*3 16 C 0 km/h
1227 16-06-2020 07:15:00 16.1 C 13.16 g/m*3 16.1 C 0 km/h
1228 16-06-2020 07:20:00 16.1 C 13.16 g/m*3 16.1 C 0 km/h
1229 16-06-2020 07:25:00 16.1 C 13.16 g/m*3 16.1 C 0 km/h
1230 16-06-2020 07:30:00 16.2 C 13.24 g/m*3 16.2 C 0 km/h
1231 16-06-2020 07:35:00 16.2 C 13.24 g/m*3 16.2 C 0 km/h
1232 16-06-2020 07:40:00 16.3 C 13.32 g/m*3 16.3 C 0 km/h
1233 16-06-2020 07:45:00 16.3 C 13.32 g/m*3 16.3 C 0 km/h
1234 16-06-2020 07:50:00 16.4 C 13.4 g/m*3 16.4 C 0 km/h
1235 16-06-2020 07:55:00 16.5 C 13.48 g/m*3 16.5 C 1.6 km/h
1236 16-06-2020 08:00:00 16.6 C 13.56 g/m*3 16.6 C 0 km/h
1237 16-06-2020 08:05:00 16.6 C 13.56 g/m*3 16.6 C 4.8 km/h
1238 16-06-2020 08:10:00 16.6 C 13.56 g/m*3 16.6 C 1.6 km/h
1239 16-06-2020 08:15:00 16.6 C 13.56 g/m*3 16.6 C 1.6 km/h
1240 16-06-2020 08:20:00 16.6 C 13.56 g/m*3 16.6 C 1.6 km/h
1241 16-06-2020 08:25:00 16.6 C 13.56 g/m*3 16.6 C 1.6 km/h
1242 16-06-2020 08:30:00 16.6 C 13.56 g/m*3 16.6 C 0 km/h
1243 16-06-2020 08:35:00 16.7 C 13.64 g/m*3 16.7 C 4.8 km/h
1244 16-06-2020 08:40:00 16.7 C 13.64 g/m*3 16.7 C 0 km/h
1245 16-06-2020 08:45:00 16.8 C 13.73 g/m*3 16.8 C 1.6 km/h
1246 16-06-2020 08:50:00 16.9 C 13.81 g/m*3 16.9 C 3.2 km/h
1247 16-06-2020 08:55:00 16.9 C 13.81 g/m*3 16.9 C 4.8 km/h
1248 16-06-2020 09:00:00 16.9 C 13.81 g/m*3 16.9 C 6.4 km/h
1249 16-06-2020 09:05:00 16.9 C 13.81 g/m*3 16.9 C 1.6 km/h
1250 16-06-2020 09:10:00 17 C 13.89 g/m*3 17 C 1.6 km/h
Sensor: Nr:Datum:Temp:Abs-Feuchte:Windchill:Wind:
Aussen-T/F 1251 16-06-2020 09:15:00 17 C 13.89 g/m*3 17 C 3.2 km/h
1252 16-06-2020 09:20:00 17.1 C 13.97 g/m*3 17.1 C 1.6 km/h
1253 16-06-2020 09:25:00 17.1 C 13.97 g/m*3 17.1 C 3.2 km/h
1254 16-06-2020 09:30:00 17.2 C 14.06 g/m*3 17.2 C 1.6 km/h
1255 16-06-2020 09:35:00 17.2 C 14.06 g/m*3 17.2 C 3.2 km/h
1256 16-06-2020 09:40:00 17.2 C 14.06 g/m*3 17.2 C 1.6 km/h
1257 16-06-2020 09:45:00 17.3 C 14.14 g/m*3 17.3 C 3.2 km/h
1258 16-06-2020 09:50:00 17.3 C 14.14 g/m*3 17.3 C 1.6 km/h
1259 16-06-2020 09:55:00 17.3 C 14.14 g/m*3 17.3 C 3.2 km/h
1260 16-06-2020 10:00:00 17.5 C 14.31 g/m*3 17.5 C 1.6 km/h
1261 16-06-2020 10:05:00 17.6 C 14.4 g/m*3 17.6 C 0 km/h
1262 16-06-2020 10:10:00 17.7 C 14.48 g/m*3 17.7 C 0 km/h
1263 16-06-2020 10:15:00 17.7 C 14.33 g/m*3 17.7 C 1.6 km/h
1264 16-06-2020 10:20:00 17.7 C 14.33 g/m*3 17.7 C 0 km/h
1265 16-06-2020 10:25:00 17.8 C 14.42 g/m*3 17.8 C 0 km/h
1266 16-06-2020 10:30:00 17.8 C 14.27 g/m*3 17.8 C 0 km/h
1267 16-06-2020 10:35:00 17.9 C 14.35 g/m*3 17.9 C 0 km/h
1268 16-06-2020 10:40:00 18.1 C 14.52 g/m*3 18.1 C 0 km/h
1269 16-06-2020 10:45:00 18.2 C 14.77 g/m*3 18.2 C 0 km/h
1270 16-06-2020 10:50:00 18.5 C 14.87 g/m*3 18.5 C 0 km/h
1271 16-06-2020 10:55:00 18.7 C 15.05 g/m*3 18.7 C 0 km/h
1272 16-06-2020 11:00:00 18.7 C 14.89 g/m*3 18.7 C 0 km/h
1273 16-06-2020 11:05:00 18.7 C 14.73 g/m*3 18.7 C 0 km/h
1274 16-06-2020 11:10:00 18.6 C 14.48 g/m*3 18.6 C 0 km/h
1275 16-06-2020 11:15:00 18.8 C 14.82 g/m*3 18.8 C 0 km/h
Sensor: Nr:Datum:Temp:Abs-Feuchte:Windchill:Wind:
Aussen-T/F 1276 16-06-2020 11:20:00 18.9 C 14.74 g/m*3 18.9 C 0 km/h
1277 16-06-2020 11:25:00 18.9 C 14.58 g/m*3 18.9 C 3.2 km/h
1278 16-06-2020 11:30:00 19 C 14.34 g/m*3 19 C 1.6 km/h
1279 16-06-2020 11:35:00 19.1 C 14.59 g/m*3 19.1 C 1.6 km/h
1280 16-06-2020 11:40:00 19.2 C 14.68 g/m*3 19.2 C 1.6 km/h
1281 16-06-2020 11:45:00 19.3 C 14.6 g/m*3 19.3 C 4.8 km/h
1282 16-06-2020 11:50:00 19.4 C 14.52 g/m*3 19.4 C 6.4 km/h
1283 16-06-2020 11:55:00 19.6 C 14.35 g/m*3 19.6 C 3.2 km/h
1284 16-06-2020 12:00:00 19.7 C 14.43 g/m*3 19.7 C 4.8 km/h
1285 16-06-2020 12:05:00 19.7 C 14.09 g/m*3 19.7 C 4.8 km/h
1286 16-06-2020 12:10:00 19.8 C 14.35 g/m*3 19.8 C 3.2 km/h
1287 16-06-2020 12:15:00 19.9 C 14.26 g/m*3 19.9 C 4.8 km/h
1288 16-06-2020 12:20:00 19.8 C 14.18 g/m*3 19.8 C 4.8 km/h
1289 16-06-2020 12:25:00 19.8 C 13.84 g/m*3 19.8 C 3.2 km/h
1290 16-06-2020 12:30:00 19.8 C 14.01 g/m*3 19.8 C 1.6 km/h
1291 16-06-2020 12:35:00 20 C 14.34 g/m*3 20 C 1.6 km/h
1292 16-06-2020 12:40:00 20.1 C 14.43 g/m*3 20.1 C 3.2 km/h
1293 16-06-2020 12:45:00 20.2 C 14.69 g/m*3 20.2 C 3.2 km/h
1294 16-06-2020 12:50:00 20.1 C 14.43 g/m*3 20.1 C 4.8 km/h
1295 16-06-2020 12:55:00 20.1 C 14.08 g/m*3 20.1 C 4.8 km/h
1296 16-06-2020 13:00:00 20.1 C 14.25 g/m*3 20.1 C 3.2 km/h
1297 16-06-2020 13:05:00 20.1 C 14.08 g/m*3 20.1 C 6.4 km/h
1298 16-06-2020 13:10:00 20.2 C 14.16 g/m*3 20.2 C 6.4 km/h
1299 16-06-2020 13:15:00 20.2 C 14.16 g/m*3 20.2 C 6.4 km/h
1300 16-06-2020 13:20:00 20.3 C 14.07 g/m*3 20.3 C 6.4 km/h
Sensor: Nr:Datum:Temp:Abs-Feuchte:Windchill:Wind:
Aussen-T/F 1301 16-06-2020 13:25:00 20.4 C 13.98 g/m*3 20.4 C 4.8 km/h
1302 16-06-2020 13:30:00 20.6 C 13.78 g/m*3 20.6 C 6.4 km/h
1303 16-06-2020 13:35:00 20.6 C 13.6 g/m*3 20.6 C 6.4 km/h
1304 16-06-2020 13:40:00 20.7 C 13.32 g/m*3 20.7 C 8.1 km/h
1305 16-06-2020 13:45:00 20.8 C 13.4 g/m*3 20.8 C 9.7 km/h
1306 16-06-2020 13:50:00 20.9 C 13.84 g/m*3 20.9 C 9.7 km/h
1307 16-06-2020 13:55:00 20.9 C 13.66 g/m*3 20.9 C 4.8 km/h
1308 16-06-2020 14:00:00 21 C 13.74 g/m*3 21 C 6.4 km/h
1309 16-06-2020 14:05:00 21.1 C 14.37 g/m*3 21.1 C 8.1 km/h
1310 16-06-2020 14:10:00 21.1 C 14.74 g/m*3 21.1 C 4.8 km/h
1311 16-06-2020 14:15:00 21.1 C 14.19 g/m*3 21.1 C 0 km/h
1312 16-06-2020 14:20:00 21.1 C 14.56 g/m*3 21.1 C 0 km/h
1313 16-06-2020 14:25:00 21.2 C 14.27 g/m*3 21.2 C 3.2 km/h
1314 16-06-2020 14:30:00 21.2 C 14.46 g/m*3 21.2 C 0 km/h
1315 16-06-2020 14:35:00 21.1 C 13.82 g/m*3 21.1 C 1.6 km/h
1316 16-06-2020 14:40:00 21.1 C 14 g/m*3 21.1 C 1.6 km/h
1317 16-06-2020 14:45:00 21.1 C 14 g/m*3 21.1 C 0 km/h
1318 16-06-2020 14:50:00 21.2 C 14.27 g/m*3 21.2 C 0 km/h
1319 16-06-2020 14:55:00 21.3 C 14.54 g/m*3 21.3 C 0 km/h
1320 16-06-2020 15:00:00 21.3 C 14.54 g/m*3 21.3 C 0 km/h
1321 16-06-2020 15:05:00 21.3 C 14.17 g/m*3 21.3 C 0 km/h
1322 16-06-2020 15:10:00 21.4 C 14.62 g/m*3 21.4 C 0 km/h
1323 16-06-2020 15:15:00 21.6 C 14.41 g/m*3 21.6 C 3.2 km/h
1324 16-06-2020 15:20:00 21.6 C 14.79 g/m*3 21.6 C 3.2 km/h
1325 16-06-2020 15:25:00 21.6 C 14.22 g/m*3 21.6 C 4.8 km/h
Sensor: Nr:Datum:Temp:Abs-Feuchte:Windchill:Wind:
Aussen-T/F 1326 16-06-2020 15:30:00 21.7 C 14.69 g/m*3 21.7 C 4.8 km/h
1327 16-06-2020 15:35:00 21.5 C 14.33 g/m*3 21.5 C 6.4 km/h
1328 16-06-2020 15:40:00 21.4 C 14.62 g/m*3 21.4 C 1.6 km/h
1329 16-06-2020 15:45:00 21.3 C 14.73 g/m*3 21.3 C 0 km/h
1330 16-06-2020 15:50:00 21.1 C 13.82 g/m*3 21.1 C 6.4 km/h
1331 16-06-2020 15:55:00 20.7 C 13.68 g/m*3 20.7 C 9.7 km/h
1332 16-06-2020 16:00:00 20.2 C 13.64 g/m*3 20.2 C 3.2 km/h
1333 16-06-2020 16:05:00 19.8 C 13.32 g/m*3 19.8 C 3.2 km/h
1334 16-06-2020 16:10:00 19.7 C 13.92 g/m*3 19.7 C 4.8 km/h
1335 16-06-2020 16:15:00 19.4 C 13.68 g/m*3 19.4 C 6.4 km/h
1336 16-06-2020 16:20:00 19.3 C 13.93 g/m*3 19.3 C 4.8 km/h
1337 16-06-2020 16:25:00 19.1 C 13.93 g/m*3 19.1 C 0 km/h
1338 16-06-2020 16:30:00 19 C 14.01 g/m*3 19 C 0 km/h
1339 16-06-2020 16:35:00 18.8 C 13.85 g/m*3 18.8 C 3.2 km/h
1340 16-06-2020 16:40:00 18.4 C 13.68 g/m*3 18.4 C 4.8 km/h
1341 16-06-2020 16:45:00 18.3 C 13.76 g/m*3 18.3 C 3.2 km/h
1342 16-06-2020 16:50:00 18.2 C 13.83 g/m*3 18.2 C 0 km/h
1343 16-06-2020 16:55:00 18.1 C 13.75 g/m*3 18.1 C 0 km/h
1344 16-06-2020 17:00:00 18.2 C 13.99 g/m*3 18.2 C 0 km/h
1345 16-06-2020 17:05:00 18.3 C 14.07 g/m*3 18.3 C 0 km/h
1346 16-06-2020 17:10:00 18.3 C 14.07 g/m*3 18.3 C 0 km/h
1347 16-06-2020 17:15:00 18.3 C 13.92 g/m*3 18.3 C 0 km/h
1348 16-06-2020 17:20:00 18.3 C 13.92 g/m*3 18.3 C 0 km/h
1349 16-06-2020 17:25:00 18.3 C 13.92 g/m*3 18.3 C 0 km/h
1350 16-06-2020 17:30:00 18.3 C 14.07 g/m*3 18.3 C 0 km/h
Sensor: Nr:Datum:Temp:Abs-Feuchte:Windchill:Wind:
Aussen-T/F 1351 16-06-2020 17:35:00 18.4 C 14 g/m*3 18.4 C 0 km/h
1352 16-06-2020 17:40:00 18.6 C 14.32 g/m*3 18.6 C 1.6 km/h
1353 16-06-2020 17:45:00 18.6 C 14.17 g/m*3 18.6 C 1.6 km/h
1354 16-06-2020 17:50:00 18.5 C 13.61 g/m*3 18.5 C 0 km/h
1355 16-06-2020 17:55:00 18.6 C 13.69 g/m*3 18.6 C 3.2 km/h
1356 16-06-2020 18:00:00 18.6 C 13.85 g/m*3 18.6 C 3.2 km/h
1357 16-06-2020 18:05:00 18.7 C 14.09 g/m*3 18.7 C 1.6 km/h
1358 16-06-2020 18:10:00 18.7 C 14.09 g/m*3 18.7 C 3.2 km/h
1359 16-06-2020 18:15:00 18.8 C 14.33 g/m*3 18.8 C 3.2 km/h
1360 16-06-2020 18:20:00 18.8 C 14.49 g/m*3 18.8 C 3.2 km/h
1361 16-06-2020 18:25:00 18.8 C 14.49 g/m*3 18.8 C 1.6 km/h
1362 16-06-2020 18:30:00 18.8 C 14.49 g/m*3 18.8 C 3.2 km/h
1363 16-06-2020 18:35:00 18.8 C 14.33 g/m*3 18.8 C 0 km/h
1364 16-06-2020 18:40:00 18.8 C 14.33 g/m*3 18.8 C 1.6 km/h
1365 16-06-2020 18:45:00 18.9 C 14.58 g/m*3 18.9 C 0 km/h
1366 16-06-2020 18:50:00 19.1 C 14.59 g/m*3 19.1 C 4.8 km/h
1367 16-06-2020 18:55:00 19.2 C 14.35 g/m*3 19.2 C 3.2 km/h
1368 16-06-2020 19:00:00 19.4 C 14.68 g/m*3 19.4 C 6.4 km/h
1369 16-06-2020 19:05:00 19.8 C 14.86 g/m*3 19.8 C 4.8 km/h
1370 16-06-2020 19:10:00 20.2 C 14.86 g/m*3 20.2 C 6.4 km/h
1371 16-06-2020 19:15:00 20.2 C 14.69 g/m*3 20.2 C 6.4 km/h
1372 16-06-2020 19:20:00 20.2 C 14.86 g/m*3 20.2 C 6.4 km/h
1373 16-06-2020 19:25:00 20.4 C 15.21 g/m*3 20.4 C 4.8 km/h
1374 16-06-2020 19:30:00 20.6 C 15.03 g/m*3 20.6 C 6.4 km/h
1375 16-06-2020 19:35:00 20.6 C 14.86 g/m*3 20.6 C 6.4 km/h
Sensor: Nr:Datum:Temp:Abs-Feuchte:Windchill:Wind:
Aussen-T/F 1376 16-06-2020 19:40:00 20.6 C 15.03 g/m*3 20.6 C 6.4 km/h
1377 16-06-2020 19:45:00 20.6 C 15.03 g/m*3 20.6 C 6.4 km/h
1378 16-06-2020 19:50:00 20.6 C 15.03 g/m*3 20.6 C 6.4 km/h
1379 16-06-2020 19:55:00 20.6 C 14.86 g/m*3 20.6 C 6.4 km/h
1380 16-06-2020 20:00:00 20.4 C 14.68 g/m*3 20.4 C 8.1 km/h
1381 16-06-2020 20:05:00 20.4 C 14.68 g/m*3 20.4 C 8.1 km/h
1382 16-06-2020 20:10:00 20.6 C 14.86 g/m*3 20.6 C 3.2 km/h
1383 16-06-2020 20:15:00 20.7 C 14.94 g/m*3 20.7 C 3.2 km/h
1384 16-06-2020 20:20:00 20.8 C 14.85 g/m*3 20.8 C 1.6 km/h
1385 16-06-2020 20:25:00 20.7 C 14.4 g/m*3 20.7 C 0 km/h
1386 16-06-2020 20:30:00 20.7 C 14.58 g/m*3 20.7 C 0 km/h
1387 16-06-2020 20:35:00 20.7 C 14.58 g/m*3 20.7 C 0 km/h
1388 16-06-2020 20:40:00 20.8 C 14.67 g/m*3 20.8 C 0 km/h
1389 16-06-2020 20:45:00 20.7 C 14.58 g/m*3 20.7 C 0 km/h
1390 16-06-2020 20:50:00 20.7 C 14.58 g/m*3 20.7 C 0 km/h
1391 16-06-2020 20:55:00 20.6 C 14.5 g/m*3 20.6 C 0 km/h
1392 16-06-2020 21:00:00 20.6 C 14.86 g/m*3 20.6 C 0 km/h
1393 16-06-2020 21:05:00 20.4 C 14.68 g/m*3 20.4 C 0 km/h
1394 16-06-2020 21:10:00 20.2 C 14.51 g/m*3 20.2 C 0 km/h
1395 16-06-2020 21:15:00 19.9 C 14.26 g/m*3 19.9 C 0 km/h
1396 16-06-2020 21:20:00 19.7 C 14.26 g/m*3 19.7 C 0 km/h
1397 16-06-2020 21:25:00 19.3 C 14.1 g/m*3 19.3 C 4.8 km/h
1398 16-06-2020 21:30:00 18.9 C 13.77 g/m*3 18.9 C 4.8 km/h
1399 16-06-2020 21:35:00 18.6 C 13.69 g/m*3 18.6 C 3.2 km/h
1400 16-06-2020 21:40:00 18.3 C 13.6 g/m*3 18.3 C 4.8 km/h
Sensor: Nr:Datum:Temp:Abs-Feuchte:Windchill:Wind:
Aussen-T/F 1401 16-06-2020 21:45:00 18 C 13.52 g/m*3 18 C 3.2 km/h
1402 16-06-2020 21:50:00 17.8 C 13.36 g/m*3 17.8 C 4.8 km/h
1403 16-06-2020 21:55:00 17.6 C 13.35 g/m*3 17.6 C 4.8 km/h
1404 16-06-2020 22:00:00 17.4 C 13.19 g/m*3 17.4 C 1.6 km/h
1405 16-06-2020 22:05:00 17.3 C 13.11 g/m*3 17.3 C 0 km/h
1406 16-06-2020 22:10:00 17.1 C 12.96 g/m*3 17.1 C 3.2 km/h
1407 16-06-2020 22:15:00 16.9 C 12.94 g/m*3 16.9 C 0 km/h
1408 16-06-2020 22:20:00 16.8 C 12.87 g/m*3 16.8 C 3.2 km/h
1409 16-06-2020 22:25:00 16.7 C 12.93 g/m*3 16.7 C 1.6 km/h
1410 16-06-2020 22:30:00 16.6 C 12.71 g/m*3 16.6 C 0 km/h
1411 16-06-2020 22:35:00 16.5 C 12.78 g/m*3 16.5 C 3.2 km/h
1412 16-06-2020 22:40:00 16.4 C 12.7 g/m*3 16.4 C 3.2 km/h
1413 16-06-2020 22:45:00 16.3 C 12.62 g/m*3 16.3 C 0 km/h
1414 16-06-2020 22:50:00 16.2 C 12.55 g/m*3 16.2 C 1.6 km/h
1415 16-06-2020 22:55:00 16.1 C 12.61 g/m*3 16.1 C 0 km/h
1416 16-06-2020 23:00:00 15.9 C 12.46 g/m*3 15.9 C 1.6 km/h
1417 16-06-2020 23:05:00 15.8 C 12.38 g/m*3 15.8 C 0 km/h
1418 16-06-2020 23:10:00 15.7 C 12.31 g/m*3 15.7 C 0 km/h
1419 16-06-2020 23:15:00 15.6 C 12.23 g/m*3 15.6 C 0 km/h
1420 16-06-2020 23:20:00 15.6 C 12.23 g/m*3 15.6 C 0 km/h
1421 16-06-2020 23:25:00 15.4 C 12.22 g/m*3 15.4 C 0 km/h
1422 16-06-2020 23:30:00 15.4 C 12.22 g/m*3 15.4 C 0 km/h
1423 16-06-2020 23:35:00 15.3 C 12.14 g/m*3 15.3 C 0 km/h
1424 16-06-2020 23:40:00 15.2 C 12.07 g/m*3 15.2 C 0 km/h
1425 16-06-2020 23:45:00 15.1 C 12 g/m*3 15.1 C 0 km/h
Sensor: Nr:Datum:Temp:Abs-Feuchte:Windchill:Wind:
Aussen-T/F 1426 16-06-2020 23:50:00 15 C 11.93 g/m*3 15 C 0 km/h
1427 16-06-2020 23:55:00 14.9 C 11.85 g/m*3 14.9 C 0 km/h

Legende:
   Min
   Max


Maximal/Minimal-Werte vom 12.06.2020 - 16.06.2020

Sensor Min Max Avg
Temp
(Aussen-T/F)
10.3 °C
12-06-2020  04:05:00
30.2 °C
12-06-2020  16:40:00
19.19 °C
Abs-Feuchte
(Aussen-T/F)
9.1 g/m*3
12-06-2020  04:05:00
15.21 g/m*3
16-06-2020  19:25:00
12.73 g/m*3
Windchill
(Aussen-T/F)
10.3 C
12-06-2020  04:05:00
30.2 C
12-06-2020  16:40:00
19.17 C

Die Daten stammen von einer Davis Vantage Pro 2 Wetter-Station und werden unter Linux mit der Software wview2wettercgi und aufbereitet. Alle Angaben erfolgen ohne Gewähr für ihre Vollständigkeit oder Richtigkeit.
Kontakt: Rainer Krienke krienke@uni-koblenz.de . Meine Webseiten an der Uni Koblenz oder privat.
Version: $Revision: 0.78 $